Wetterdaten: Dienstag, 31.12.2013
Datum Zeit Temp. Aussen +5cm Feuchte Auss Luftdruck Regen Sonnenschein Regendauer UV Solar Windben
31.12.2013 00:00 5,2 C 3,3 C 85 % 1019,1 hPa 0,0 l/m 0 min 0 min 0,0 UV-I 0 W/m 7,7 km/h (2 Bft)
31.12.2013 00:02 5,2 C 3,3 C 85 % 1019,0 hPa 0,0 l/m 0 min 0 min 0,0 UV-I 0 W/m 10,3 km/h (2 Bft)
31.12.2013 00:04 5,2 C 3,3 C 85 % 1019,0 hPa 0,0 l/m 0 min 0 min 0,0 UV-I 0 W/m 12,9 km/h (3 Bft)
31.12.2013 00:06 5,2 C 3,3 C 85 % 1019,0 hPa 0,0 l/m 0 min 0 min 0,0 UV-I 0 W/m 5,1 km/h (1 Bft)
31.12.2013 00:08 5,2 C 3,3 C 85 % 1018,9 hPa 0,0 l/m 0 min 0 min 0,0 UV-I 0 W/m 15,4 km/h (3 Bft)
31.12.2013 00:10 5,2 C 3,3 C 85 % 1018,9 hPa 0,0 l/m 0 min 0 min 0,0 UV-I 0 W/m 10,3 km/h (2 Bft)
31.12.2013 00:12 5,2 C 3,3 C 85 % 1018,9 hPa 0,0 l/m 0 min 0 min 0,0 UV-I 0 W/m 10,3 km/h (2 Bft)
31.12.2013 00:14 5,2 C 3,3 C 85 % 1018,9 hPa 0,0 l/m 0 min 0 min 0,0 UV-I 0 W/m 10,3 km/h (2 Bft)
31.12.2013 00:16 5,2 C 3,3 C 85 % 1018,9 hPa 0,0 l/m 0 min 0 min 0,0 UV-I 0 W/m 7,7 km/h (2 Bft)
31.12.2013 00:18 5,2 C 3,3 C 85 % 1018,9 hPa 0,0 l/m 0 min 0 min 0,0 UV-I 0 W/m 10,3 km/h (2 Bft)
31.12.2013 00:20 5,2 C 3,3 C 85 % 1018,9 hPa 0,0 l/m 0 min 0 min 0,0 UV-I 0 W/m 12,9 km/h (3 Bft)
31.12.2013 00:22 5,2 C 3,3 C 85 % 1018,9 hPa 0,0 l/m 0 min 0 min 0,0 UV-I 0 W/m 10,3 km/h (2 Bft)
31.12.2013 00:24 5,3 C 3,3 C 85 % 1018,9 hPa 0,0 l/m 0 min 0 min 0,0 UV-I 0 W/m 10,3 km/h (2 Bft)
31.12.2013 00:26 5,3 C 3,3 C 85 % 1018,8 hPa 0,0 l/m 0 min 0 min 0,0 UV-I 0 W/m 12,9 km/h (3 Bft)
31.12.2013 00:28 5,3 C 3,3 C 85 % 1018,9 hPa 0,0 l/m 0 min 0 min 0,0 UV-I 0 W/m 2,6 km/h (1 Bft)
31.12.2013 00:30 5,3 C 3,3 C 85 % 1018,9 hPa 0,0 l/m 0 min 0 min 0,0 UV-I 0 W/m 7,7 km/h (2 Bft)
31.12.2013 00:32 5,3 C 3,3 C 85 % 1018,9 hPa 0,0 l/m 0 min 0 min 0,0 UV-I 0 W/m 0,0 km/h (0 Bft)
31.12.2013 00:34 5,3 C 3,3 C 85 % 1018,9 hPa 0,0 l/m 0 min 0 min 0,0 UV-I 0 W/m 5,1 km/h (1 Bft)
31.12.2013 00:36 5,3 C 3,3 C 85 % 1018,9 hPa 0,0 l/m 0 min 0 min 0,0 UV-I 0 W/m 10,3 km/h (2 Bft)
31.12.2013 00:38 5,3 C 3,3 C 85 % 1018,8 hPa 0,0 l/m 0 min 0 min 0,0 UV-I 0 W/m 12,9 km/h (3 Bft)
31.12.2013 00:40 5,3 C 3,3 C 85 % 1018,9 hPa 0,0 l/m 0 min 0 min 0,0 UV-I 0 W/m 10,3 km/h (2 Bft)
31.12.2013 00:42 5,3 C 3,3 C 85 % 1018,8 hPa 0,0 l/m 0 min 0 min 0,0 UV-I 0 W/m 7,7 km/h (2 Bft)
31.12.2013 00:44 5,3 C 3,3 C 85 % 1018,9 hPa 0,0 l/m 0 min 0 min 0,0 UV-I 0 W/m 0,0 km/h (0 Bft)
31.12.2013 00:46 5,2 C 3,3 C 86 % 1018,8 hPa 0,0 l/m 0 min 0 min 0,0 UV-I 0 W/m 10,3 km/h (2 Bft)
31.12.2013 00:48 5,2 C 3,3 C 86 % 1018,8 hPa 0,0 l/m 0 min 0 min 0,0 UV-I 0 W/m 2,6 km/h (1 Bft)
31.12.2013 00:50 5,2 C 3,3 C 86 % 1018,8 hPa 0,0 l/m 0 min 0 min 0,0 UV-I 0 W/m 15,4 km/h (3 Bft)
31.12.2013 00:52 5,2 C 3,3 C 86 % 1018,8 hPa 0,0 l/m 0 min 0 min 0,0 UV-I 0 W/m 10,3 km/h (2 Bft)
31.12.2013 00:54 5,2 C 3,3 C 86 % 1018,9 hPa 0,0 l/m 0 min 0 min 0,0 UV-I 0 W/m 10,3 km/h (2 Bft)
31.12.2013 00:56 5,2 C 3,3 C 86 % 1018,8 hPa 0,0 l/m 0 min 0 min 0,0 UV-I 0 W/m 10,3 km/h (2 Bft)
31.12.2013 00:58 5,2 C 3,3 C 86 % 1018,8 hPa 0,0 l/m 0 min 0 min 0,0 UV-I 0 W/m 18,0 km/h (3 Bft)
31.12.2013 01:00 5,2 C 3,3 C 86 % 1018,8 hPa 0,0 l/m 0 min 0 min 0,0 UV-I 0 W/m 7,7 km/h (2 Bft)
31.12.2013 01:02 5,3 C 3,9 C 86 % 1018,9 hPa 0,0 l/m 0 min 0 min 0,0 UV-I 0 W/m 10,3 km/h (2 Bft)
31.12.2013 01:04 5,2 C 3,9 C 86 % 1018,9 hPa 0,0 l/m 0 min 0 min 0,0 UV-I 0 W/m 10,3 km/h (2 Bft)
31.12.2013 01:06 5,3 C 3,9 C 86 % 1018,8 hPa 0,0 l/m 0 min 0 min 0,0 UV-I 0 W/m 12,9 km/h (3 Bft)
31.12.2013 01:08 5,3 C 3,3 C 86 % 1018,8 hPa 0,0 l/m 0 min 0 min 0,0 UV-I 0 W/m 5,1 km/h (1 Bft)
31.12.2013 01:10 5,3 C 3,3 C 86 % 1018,8 hPa 0,0 l/m 0 min 0 min 0,0 UV-I 0 W/m 10,3 km/h (2 Bft)
31.12.2013 01:12 5,3 C 3,3 C 86 % 1018,8 hPa 0,0 l/m 0 min 0 min 0,0 UV-I 0 W/m 10,3 km/h (2 Bft)
31.12.2013 01:14 5,3 C 3,3 C 86 % 1018,8 hPa 0,0 l/m 0 min 0 min 0,0 UV-I 0 W/m 10,3 km/h (2 Bft)
31.12.2013 01:16 5,3 C 3,3 C 86 % 1018,8 hPa 0,0 l/m 0 min 0 min 0,0 UV-I 0 W/m 12,9 km/h (3 Bft)
31.12.2013 01:18 5,3 C 3,3 C 86 % 1018,8 hPa 0,0 l/m 0 min 0 min 0,0 UV-I 0 W/m 12,9 km/h (3 Bft)
31.12.2013 01:20 5,3 C 3,3 C 86 % 1018,8 hPa 0,0 l/m 0 min 0 min 0,0 UV-I 0 W/m 12,9 km/h (3 Bft)
31.12.2013 01:22 5,3 C 3,3 C 86 % 1018,8 hPa 0,0 l/m 0 min 0 min 0,0 UV-I 0 W/m 7,7 km/h (2 Bft)
31.12.2013 01:24 5,3 C 3,3 C 86 % 1018,8 hPa 0,0 l/m 0 min 0 min 0,0 UV-I 0 W/m 12,9 km/h (3 Bft)
31.12.2013 01:26 5,3 C 3,3 C 86 % 1018,8 hPa 0,0 l/m 0 min 0 min 0,0 UV-I 0 W/m 7,7 km/h (2 Bft)
31.12.2013 01:28 5,3 C 3,3 C 86 % 1018,8 hPa 0,0 l/m 0 min 0 min 0,0 UV-I 0 W/m 7,7 km/h (2 Bft)
31.12.2013 01:30 5,3 C 3,3 C 86 % 1018,8 hPa 0,0 l/m 0 min 0 min 0,0 UV-I 0 W/m 7,7 km/h (2 Bft)
31.12.2013 01:32 5,3 C 3,3 C 86 % 1018,8 hPa 0,0 l/m 0 min 0 min 0,0 UV-I 0 W/m 10,3 km/h (2 Bft)
31.12.2013 01:34 5,3 C 3,3 C 86 % 1018,7 hPa 0,0 l/m 0 min 0 min 0,0 UV-I 0 W/m 7,7 km/h (2 Bft)
31.12.2013 01:36 5,3 C 3,3 C 86 % 1018,7 hPa 0,0 l/m 0 min 0 min 0,0 UV-I 0 W/m 12,9 km/h (3 Bft)
31.12.2013 01:38 5,3 C 3,9 C 86 % 1018,7 hPa 0,0 l/m 0 min 0 min 0,0 UV-I 0 W/m 12,9 km/h (3 Bft)
31.12.2013 01:40 5,3 C 3,9 C 86 % 1018,7 hPa 0,0 l/m 0 min 0 min 0,0 UV-I 0 W/m 12,9 km/h (3 Bft)
31.12.2013 01:42 5,3 C 3,9 C 86 % 1018,7 hPa 0,0 l/m 0 min 0 min 0,0 UV-I 0 W/m 10,3 km/h (2 Bft)
31.12.2013 01:44 5,3 C 3,9 C 86 % 1018,7 hPa 0,0 l/m 0 min 0 min 0,0 UV-I 0 W/m 12,9 km/h (3 Bft)
31.12.2013 01:46 5,3 C 3,9 C 86 % 1018,6 hPa 0,0 l/m 0 min 0 min 0,0 UV-I 0 W/m 7,7 km/h (2 Bft)
31.12.2013 01:48 5,3 C 3,9 C 86 % 1018,7 hPa 0,0 l/m 0 min 0 min 0,0 UV-I 0 W/m 10,3 km/h (2 Bft)
31.12.2013 01:50 5,3 C 3,9 C 86 % 1018,7 hPa 0,0 l/m 0 min 0 min 0,0 UV-I 0 W/m 18,0 km/h (3 Bft)
31.12.2013 01:52 5,3 C 3,9 C 86 % 1018,8 hPa 0,0 l/m 0 min 0 min 0,0 UV-I 0 W/m 5,1 km/h (1 Bft)
31.12.2013 01:54 5,3 C 3,9 C 86 % 1018,7 hPa 0,0 l/m 0 min 0 min 0,0 UV-I 0 W/m 10,3 km/h (2 Bft)
31.12.2013 01:56 5,4 C 3,9 C 86 % 1018,7 hPa 0,0 l/m 0 min 0 min 0,0 UV-I 0 W/m 12,9 km/h (3 Bft)
31.12.2013 01:58 5,3 C 3,9 C 86 % 1018,7 hPa 0,0 l/m 0 min 0 min 0,0 UV-I 0 W/m 12,9 km/h (3 Bft)
31.12.2013 02:00 5,3 C 3,9 C 86 % 1018,7 hPa 0,0 l/m 0 min 0 min 0,0 UV-I 0 W/m 5,1 km/h (1 Bft)
31.12.2013 02:02 5,4 C 3,9 C 86 % 1018,7 hPa 0,0 l/m 0 min 0 min 0,0 UV-I 0 W/m 5,1 km/h (1 Bft)
31.12.2013 02:04 5,4 C 3,9 C 86 % 1018,8 hPa 0,0 l/m 0 min 0 min 0,0 UV-I 0 W/m 10,3 km/h (2 Bft)
31.12.2013 02:06 5,4 C 3,9 C 86 % 1018,7 hPa 0,0 l/m 0 min 0 min 0,0 UV-I 0 W/m 7,7 km/h (2 Bft)
31.12.2013 02:08 5,4 C 3,9 C 86 % 1018,7 hPa 0,0 l/m 0 min 0 min 0,0 UV-I 0 W/m 5,1 km/h (1 Bft)
31.12.2013 02:10 5,4 C 3,9 C 86 % 1018,8 hPa 0,0 l/m 0 min 0 min 0,0 UV-I 0 W/m 10,3 km/h (2 Bft)
31.12.2013 02:12 5,4 C 3,9 C 86 % 1018,8 hPa 0,0 l/m 0 min 0 min 0,0 UV-I 0 W/m 7,7 km/h (2 Bft)
31.12.2013 02:14 5,4 C 3,9 C 86 % 1018,7 hPa 0,0 l/m 0 min 0 min 0,0 UV-I 0 W/m 10,3 km/h (2 Bft)
31.12.2013 02:16 5,4 C 3,9 C 86 % 1018,8 hPa 0,0 l/m 0 min 0 min 0,0 UV-I 0 W/m 0,0 km/h (0 Bft)
31.12.2013 02:18 5,4 C 3,9 C 86 % 1018,8 hPa 0,0 l/m 0 min 0 min 0,0 UV-I 0 W/m 10,3 km/h (2 Bft)
31.12.2013 02:20 5,4 C 3,9 C 86 % 1018,8 hPa 0,0 l/m 0 min 0 min 0,0 UV-I 0 W/m 2,6 km/h (1 Bft)
31.12.2013 02:22 5,4 C 3,9 C 86 % 1018,8 hPa 0,0 l/m 0 min 0 min 0,0 UV-I 0 W/m 5,1 km/h (1 Bft)
31.12.2013 02:24 5,4 C 3,9 C 86 % 1018,8 hPa 0,0 l/m 0 min 0 min 0,0 UV-I 0 W/m 5,1 km/h (1 Bft)
31.12.2013 02:26 5,4 C 3,9 C 86 % 1018,8 hPa 0,0 l/m 0 min 0 min 0,0 UV-I 0 W/m 0,0 km/h (0 Bft)
31.12.2013 02:28 5,4 C 3,9 C 86 % 1018,8 hPa 0,0 l/m 0 min 0 min 0,0 UV-I 0 W/m 2,6 km/h (1 Bft)
31.12.2013 02:30 5,4 C 3,9 C 86 % 1018,8 hPa 0,0 l/m 0 min 0 min 0,0 UV-I 0 W/m 7,7 km/h (2 Bft)
31.12.2013 02:32 5,4 C 3,9 C 86 % 1018,8 hPa 0,0 l/m 0 min 0 min 0,0 UV-I 0 W/m 2,6 km/h (1 Bft)
31.12.2013 02:34 5,4 C 3,9 C 86 % 1018,9 hPa 0,0 l/m 0 min 0 min 0,0 UV-I 0 W/m 7,7 km/h (2 Bft)
31.12.2013 02:36 5,4 C 3,9 C 86 % 1018,9 hPa 0,0 l/m 0 min 0 min 0,0 UV-I 0 W/m 10,3 km/h (2 Bft)
31.12.2013 02:38 5,4 C 3,9 C 86 % 1018,9 hPa 0,0 l/m 0 min 0 min 0,0 UV-I 0 W/m 12,9 km/h (3 Bft)
31.12.2013 02:40 5,4 C 3,9 C 86 % 1018,8 hPa 0,0 l/m 0 min 0 min 0,0 UV-I 0 W/m 0,0 km/h (0 Bft)
31.12.2013 02:42 5,4 C 3,9 C 86 % 1018,8 hPa 0,0 l/m 0 min 0 min 0,0 UV-I 0 W/m 12,9 km/h (3 Bft)
31.12.2013 02:44 5,4 C 3,9 C 86 % 1018,8 hPa 0,0 l/m 0 min 0 min 0,0 UV-I 0 W/m 10,3 km/h (2 Bft)
31.12.2013 02:46 5,4 C 3,9 C 86 % 1018,8 hPa 0,0 l/m 0 min 0 min 0,0 UV-I 0 W/m 2,6 km/h (1 Bft)
31.12.2013 02:48 5,4 C 3,9 C 86 % 1018,8 hPa 0,0 l/m 0 min 0 min 0,0 UV-I 0 W/m 5,1 km/h (1 Bft)
31.12.2013 02:50 5,4 C 3,9 C 86 % 1018,8 hPa 0,0 l/m 0 min 0 min 0,0 UV-I 0 W/m 12,9 km/h (3 Bft)
31.12.2013 02:52 5,4 C 3,9 C 86 % 1018,9 hPa 0,0 l/m 0 min 0 min 0,0 UV-I 0 W/m 0,0 km/h (0 Bft)
31.12.2013 02:54 5,4 C 3,9 C 86 % 1018,9 hPa 0,0 l/m 0 min 0 min 0,0 UV-I 0 W/m 0,0 km/h (0 Bft)
31.12.2013 02:56 5,4 C 3,9 C 86 % 1018,9 hPa 0,0 l/m 0 min 0 min 0,0 UV-I 0 W/m 2,6 km/h (1 Bft)
31.12.2013 02:58 5,4 C 3,9 C 86 % 1018,8 hPa 0,0 l/m 0 min 0 min 0,0 UV-I 0 W/m 2,6 km/h (1 Bft)
31.12.2013 03:00 5,4 C 3,9 C 86 % 1018,8 hPa 0,0 l/m 0 min 0 min 0,0 UV-I 0 W/m 0,0 km/h (0 Bft)
31.12.2013 03:02 5,4 C 3,9 C 86 % 1018,8 hPa 0,0 l/m 0 min 0 min 0,0 UV-I 0 W/m 2,6 km/h (1 Bft)
31.12.2013 03:04 5,4 C 3,9 C 86 % 1018,8 hPa 0,0 l/m 0 min 0 min 0,0 UV-I 0 W/m 0,0 km/h (0 Bft)
31.12.2013 03:06 5,3 C 3,9 C 86 % 1018,8 hPa 0,0 l/m 0 min 0 min 0,0 UV-I 0 W/m 0,0 km/h (0 Bft)
31.12.2013 03:08 5,3 C 3,9 C 87 % 1018,9 hPa 0,0 l/m 0 min 0 min 0,0 UV-I 0 W/m 0,0 km/h (0 Bft)
31.12.2013 03:10 5,3 C 3,9 C 87 % 1018,8 hPa 0,0 l/m 0 min 0 min 0,0 UV-I 0 W/m 7,7 km/h (2 Bft)
31.12.2013 03:12 5,3 C 3,9 C 87 % 1018,9 hPa 0,0 l/m 0 min 0 min 0,0 UV-I 0 W/m 7,7 km/h (2 Bft)
31.12.2013 03:14 5,3 C 3,9 C 87 % 1018,8 hPa 0,0 l/m 0 min 0 min 0,0 UV-I 0 W/m 5,1 km/h (1 Bft)
31.12.2013 03:16 5,3 C 3,9 C 87 % 1018,8 hPa 0,0 l/m 0 min 0 min 0,0 UV-I 0 W/m 7,7 km/h (2 Bft)
31.12.2013 03:18 5,2 C 3,9 C 87 % 1018,8 hPa 0,0 l/m 0 min 0 min 0,0 UV-I 0 W/m 0,0 km/h (0 Bft)
31.12.2013 03:20 5,2 C 3,9 C 87 % 1018,8 hPa 0,0 l/m 0 min 0 min 0,0 UV-I 0 W/m 7,7 km/h (2 Bft)
31.12.2013 03:22 5,2 C 3,9 C 87 % 1018,8 hPa 0,0 l/m 0 min 0 min 0,0 UV-I 0 W/m 7,7 km/h (2 Bft)
31.12.2013 03:24 5,2 C 3,9 C 87 % 1018,9 hPa 0,0 l/m 0 min 0 min 0,0 UV-I 0 W/m 12,9 km/h (3 Bft)
31.12.2013 03:26 5,2 C 3,9 C 87 % 1018,9 hPa 0,0 l/m 0 min 0 min 0,0 UV-I 0 W/m 15,4 km/h (3 Bft)
31.12.2013 03:28 5,1 C 3,9 C 87 % 1018,8 hPa 0,0 l/m 0 min 0 min 0,0 UV-I 0 W/m 0,0 km/h (0 Bft)
31.12.2013 03:30 5,1 C 3,3 C 87 % 1018,9 hPa 0,0 l/m 0 min 0 min 0,0 UV-I 0 W/m 7,7 km/h (2 Bft)
31.12.2013 03:32 5,1 C 3,3 C 87 % 1018,8 hPa 0,0 l/m 0 min 0 min 0,0 UV-I 0 W/m 10,3 km/h (2 Bft)
31.12.2013 03:34 5,1 C 3,3 C 87 % 1018,8 hPa 0,0 l/m 0 min 0 min 0,0 UV-I 0 W/m 7,7 km/h (2 Bft)
31.12.2013 03:36 5,1 C 3,3 C 87 % 1018,8 hPa 0,0 l/m 0 min 0 min 0,0 UV-I 0 W/m 7,7 km/h (2 Bft)
31.12.2013 03:38 5,1 C 3,3 C 87 % 1018,8 hPa 0,0 l/m 0 min 0 min 0,0 UV-I 0 W/m 10,3 km/h (2 Bft)
31.12.2013 03:40 5,0 C 3,3 C 87 % 1018,8 hPa 0,0 l/m 0 min 0 min 0,0 UV-I 0 W/m 2,6 km/h (1 Bft)
31.12.2013 03:42 5,0 C 3,9 C 88 % 1018,8 hPa 0,0 l/m 0 min 0 min 0,0 UV-I 0 W/m 5,1 km/h (1 Bft)
31.12.2013 03:44 5,0 C 3,9 C 88 % 1018,8 hPa 0,0 l/m 0 min 0 min 0,0 UV-I 0 W/m 2,6 km/h (1 Bft)
31.12.2013 03:46 5,0 C 3,9 C 88 % 1018,7 hPa 0,0 l/m 0 min 0 min 0,0 UV-I 0 W/m 0,0 km/h (0 Bft)
31.12.2013 03:48 5,0 C 3,3 C 88 % 1018,7 hPa 0,0 l/m 0 min 0 min 0,0 UV-I 0 W/m 0,0 km/h (0 Bft)
31.12.2013 03:50 4,9 C 3,3 C 88 % 1018,7 hPa 0,0 l/m 0 min 0 min 0,0 UV-I 0 W/m 0,0 km/h (0 Bft)
31.12.2013 03:52 4,9 C 3,3 C 88 % 1018,7 hPa 0,0 l/m 0 min 0 min 0,0 UV-I 0 W/m 5,1 km/h (1 Bft)
31.12.2013 03:54 4,9 C 3,3 C 88 % 1018,7 hPa 0,0 l/m 0 min 0 min 0,0 UV-I 0 W/m 0,0 km/h (0 Bft)
31.12.2013 03:56 4,9 C 3,3 C 88 % 1018,6 hPa 0,0 l/m 0 min 0 min 0,0 UV-I 0 W/m 5,1 km/h (1 Bft)
31.12.2013 03:58 4,9 C 3,3 C 88 % 1018,6 hPa 0,0 l/m 0 min 0 min 0,0 UV-I 0 W/m 5,1 km/h (1 Bft)
31.12.2013 04:00 4,9 C 3,3 C 88 % 1018,5 hPa 0,0 l/m 0 min 0 min 0,0 UV-I 0 W/m 5,1 km/h (1 Bft)
31.12.2013 04:02 4,9 C 3,3 C 88 % 1018,5 hPa 0,0 l/m 0 min 0 min 0,0 UV-I 0 W/m 2,6 km/h (1 Bft)
31.12.2013 04:04 4,9 C 3,3 C 88 % 1018,5 hPa 0,0 l/m 0 min 0 min 0,0 UV-I 0 W/m 7,7 km/h (2 Bft)
31.12.2013 04:06 4,9 C 3,3 C 88 % 1018,4 hPa 0,0 l/m 0 min 0 min 0,0 UV-I 0 W/m 7,7 km/h (2 Bft)
31.12.2013 04:08 4,9 C 3,9 C 88 % 1018,3 hPa 0,0 l/m 0 min 0 min 0,0 UV-I 0 W/m 0,0 km/h (0 Bft)
31.12.2013 04:10 4,9 C 3,9 C 88 % 1018,3 hPa 0,0 l/m 0 min 0 min 0,0 UV-I 0 W/m 7,7 km/h (2 Bft)
31.12.2013 04:12 4,9 C 3,3 C 88 % 1018,3 hPa 0,0 l/m 0 min 0 min 0,0 UV-I 0 W/m 0,0 km/h (0 Bft)
31.12.2013 04:14 4,9 C 3,3 C 89 % 1018,3 hPa 0,0 l/m 0 min 0 min 0,0 UV-I 0 W/m 0,0 km/h (0 Bft)
31.12.2013 04:16 4,9 C 3,3 C 89 % 1018,2 hPa 0,0 l/m 0 min 0 min 0,0 UV-I 0 W/m 10,3 km/h (2 Bft)
31.12.2013 04:18 4,8 C 3,3 C 89 % 1018,3 hPa 0,0 l/m 0 min 0 min 0,0 UV-I 0 W/m 5,1 km/h (1 Bft)
31.12.2013 04:20 4,8 C 3,3 C 88 % 1018,2 hPa 0,0 l/m 0 min 0 min 0,0 UV-I 0 W/m 10,3 km/h (2 Bft)
31.12.2013 04:22 4,8 C 3,3 C 88 % 1018,1 hPa 0,0 l/m 0 min 0 min 0,0 UV-I 0 W/m 10,3 km/h (2 Bft)
31.12.2013 04:24 4,8 C 3,3 C 89 % 1018,1 hPa 0,0 l/m 0 min 0 min 0,0 UV-I 0 W/m 7,7 km/h (2 Bft)
31.12.2013 04:26 4,8 C 3,3 C 89 % 1018,0 hPa 0,0 l/m 0 min 0 min 0,0 UV-I 0 W/m 7,7 km/h (2 Bft)
31.12.2013 04:28 4,8 C 3,3 C 89 % 1018,0 hPa 0,0 l/m 0 min 0 min 0,0 UV-I 0 W/m 10,3 km/h (2 Bft)
31.12.2013 04:30 4,8 C 3,3 C 89 % 1018,0 hPa 0,0 l/m 0 min 0 min 0,0 UV-I 0 W/m 5,1 km/h (1 Bft)
31.12.2013 04:32 4,8 C 3,3 C 89 % 1017,9 hPa 0,0 l/m 0 min 0 min 0,0 UV-I 0 W/m 12,9 km/h (3 Bft)
31.12.2013 04:34 4,8 C 3,3 C 89 % 1018,0 hPa 0,0 l/m 0 min 0 min 0,0 UV-I 0 W/m 12,9 km/h (3 Bft)
31.12.2013 04:36 4,8 C 3,3 C 89 % 1018,0 hPa 0,0 l/m 0 min 0 min 0,0 UV-I 0 W/m 10,3 km/h (2 Bft)
31.12.2013 04:38 4,8 C 3,3 C 89 % 1017,9 hPa 0,0 l/m 0 min 0 min 0,0 UV-I 0 W/m 10,3 km/h (2 Bft)
31.12.2013 04:40 4,8 C 3,3 C 89 % 1017,9 hPa 0,0 l/m 0 min 0 min 0,0 UV-I 0 W/m 10,3 km/h (2 Bft)
31.12.2013 04:42 4,8 C 3,3 C 89 % 1017,9 hPa 0,0 l/m 0 min 0 min 0,0 UV-I 0 W/m 10,3 km/h (2 Bft)
31.12.2013 04:44 4,8 C 3,3 C 89 % 1017,9 hPa 0,0 l/m 0 min 0 min 0,0 UV-I 0 W/m 15,4 km/h (3 Bft)
31.12.2013 04:46 4,8 C 3,3 C 89 % 1017,9 hPa 0,0 l/m 0 min 2 min 0,0 UV-I 0 W/m 10,3 km/h (2 Bft)
31.12.2013 04:48 4,8 C 3,3 C 89 % 1017,9 hPa 0,0 l/m 0 min 2 min 0,0 UV-I 0 W/m 15,4 km/h (3 Bft)
31.12.2013 04:50 4,8 C 3,3 C 89 % 1018,0 hPa 0,0 l/m 0 min 2 min 0,0 UV-I 0 W/m 12,9 km/h (3 Bft)
31.12.2013 04:52 4,8 C 3,3 C 89 % 1018,0 hPa 0,0 l/m 0 min 2 min 0,0 UV-I 0 W/m 10,3 km/h (2 Bft)
31.12.2013 04:54 4,8 C 3,3 C 90 % 1018,0 hPa 0,0 l/m 0 min 2 min 0,0 UV-I 0 W/m 2,6 km/h (1 Bft)
31.12.2013 04:56 4,7 C 2,8 C 90 % 1017,8 hPa 0,0 l/m 0 min 2 min 0,0 UV-I 0 W/m 12,9 km/h (3 Bft)
31.12.2013 04:58 4,7 C 2,8 C 90 % 1017,8 hPa 0,0 l/m 0 min 2 min 0,0 UV-I 0 W/m 10,3 km/h (2 Bft)
31.12.2013 05:00 4,7 C 2,8 C 90 % 1017,7 hPa 0,0 l/m 0 min 2 min 0,0 UV-I 0 W/m 15,4 km/h (3 Bft)
31.12.2013 05:02 4,7 C 2,8 C 90 % 1017,7 hPa 0,0 l/m 0 min 2 min 0,0 UV-I 0 W/m 10,3 km/h (2 Bft)
31.12.2013 05:04 4,7 C 2,8 C 90 % 1017,7 hPa 0,0 l/m 0 min 2 min 0,0 UV-I 0 W/m 7,7 km/h (2 Bft)
31.12.2013 05:06 4,7 C 2,8 C 90 % 1017,7 hPa 0,0 l/m 0 min 2 min 0,0 UV-I 0 W/m 10,3 km/h (2 Bft)
31.12.2013 05:08 4,7 C 2,8 C 90 % 1017,8 hPa 0,0 l/m 0 min 2 min 0,0 UV-I 0 W/m 5,1 km/h (1 Bft)
31.12.2013 05:10 4,7 C 2,2 C 90 % 1017,8 hPa 0,0 l/m 0 min 0 min 0,0 UV-I 0 W/m 10,3 km/h (2 Bft)
31.12.2013 05:12 4,6 C 2,2 C 91 % 1017,7 hPa 0,0 l/m 0 min 0 min 0,0 UV-I 0 W/m 10,3 km/h (2 Bft)
31.12.2013 05:14 4,6 C 2,8 C 91 % 1017,7 hPa 0,2 l/m 0 min 2 min 0,0 UV-I 0 W/m 12,9 km/h (3 Bft)
31.12.2013 05:16 4,6 C 2,8 C 91 % 1017,7 hPa 0,0 l/m 0 min 2 min 0,0 UV-I 0 W/m 2,6 km/h (1 Bft)
31.12.2013 05:18 4,6 C 2,2 C 91 % 1017,6 hPa 0,0 l/m 0 min 2 min 0,0 UV-I 0 W/m 5,1 km/h (1 Bft)
31.12.2013 05:20 4,5 C 2,2 C 91 % 1017,6 hPa 0,0 l/m 0 min 2 min 0,0 UV-I 0 W/m 5,1 km/h (1 Bft)
31.12.2013 05:22 4,5 C 2,2 C 91 % 1017,6 hPa 0,0 l/m 0 min 0 min 0,0 UV-I 0 W/m 2,6 km/h (1 Bft)
31.12.2013 05:24 4,4 C 2,2 C 91 % 1017,5 hPa 0,0 l/m 0 min 0 min 0,0 UV-I 0 W/m 2,6 km/h (1 Bft)
31.12.2013 05:26 4,4 C 2,2 C 91 % 1017,5 hPa 0,0 l/m 0 min 0 min 0,0 UV-I 0 W/m 10,3 km/h (2 Bft)
31.12.2013 05:28 4,4 C 2,2 C 91 % 1017,5 hPa 0,0 l/m 0 min 0 min 0,0 UV-I 0 W/m 10,3 km/h (2 Bft)
31.12.2013 05:30 4,3 C 2,2 C 91 % 1017,5 hPa 0,0 l/m 0 min 0 min 0,0 UV-I 0 W/m 5,1 km/h (1 Bft)
31.12.2013 05:32 4,3 C 2,2 C 91 % 1017,5 hPa 0,0 l/m 0 min 0 min 0,0 UV-I 0 W/m 10,3 km/h (2 Bft)
31.12.2013 05:34 4,3 C 2,2 C 91 % 1017,4 hPa 0,0 l/m 0 min 0 min 0,0 UV-I 0 W/m 10,3 km/h (2 Bft)
31.12.2013 05:36 4,2 C 2,2 C 92 % 1017,4 hPa 0,0 l/m 0 min 0 min 0,0 UV-I 0 W/m 10,3 km/h (2 Bft)
31.12.2013 05:38 4,2 C 2,2 C 92 % 1017,3 hPa 0,0 l/m 0 min 0 min 0,0 UV-I 0 W/m 5,1 km/h (1 Bft)
31.12.2013 05:40 4,1 C 1,7 C 92 % 1017,3 hPa 0,0 l/m 0 min 0 min 0,0 UV-I 0 W/m 5,1 km/h (1 Bft)
31.12.2013 05:42 4,1 C 1,7 C 92 % 1017,3 hPa 0,0 l/m 0 min 0 min 0,0 UV-I 0 W/m 0,0 km/h (0 Bft)
31.12.2013 05:44 4,1 C 1,7 C 92 % 1017,2 hPa 0,0 l/m 0 min 0 min 0,0 UV-I 0 W/m 0,0 km/h (0 Bft)
31.12.2013 05:46 4,0 C 1,7 C 92 % 1017,2 hPa 0,0 l/m 0 min 0 min 0,0 UV-I 0 W/m 2,6 km/h (1 Bft)
31.12.2013 05:48 3,9 C 1,7 C 92 % 1017,2 hPa 0,0 l/m 0 min 0 min 0,0 UV-I 0 W/m 0,0 km/h (0 Bft)
31.12.2013 05:50 3,9 C 1,7 C 92 % 1017,2 hPa 0,0 l/m 0 min 0 min 0,0 UV-I 0 W/m 5,1 km/h (1 Bft)
31.12.2013 05:52 3,9 C 1,7 C 92 % 1017,2 hPa 0,0 l/m 0 min 0 min 0,0 UV-I 0 W/m 2,6 km/h (1 Bft)
31.12.2013 05:54 3,8 C 1,7 C 92 % 1017,1 hPa 0,0 l/m 0 min 0 min 0,0 UV-I 0 W/m 7,7 km/h (2 Bft)
31.12.2013 05:56 3,8 C 1,7 C 92 % 1017,1 hPa 0,0 l/m 0 min 0 min 0,0 UV-I 0 W/m 5,1 km/h (1 Bft)
31.12.2013 05:58 3,8 C 1,7 C 92 % 1017,1 hPa 0,0 l/m 0 min 0 min 0,0 UV-I 0 W/m 7,7 km/h (2 Bft)
31.12.2013 06:00 3,7 C 1,7 C 92 % 1017,0 hPa 0,0 l/m 0 min 0 min 0,0 UV-I 0 W/m 10,3 km/h (2 Bft)
31.12.2013 06:02 3,7 C 1,7 C 92 % 1017,0 hPa 0,0 l/m 0 min 0 min 0,0 UV-I 0 W/m 7,7 km/h (2 Bft)
31.12.2013 06:04 3,7 C 1,7 C 93 % 1017,0 hPa 0,0 l/m 0 min 0 min 0,0 UV-I 0 W/m 10,3 km/h (2 Bft)
31.12.2013 06:06 3,7 C 1,7 C 92 % 1016,9 hPa 0,0 l/m 0 min 0 min 0,0 UV-I 0 W/m 10,3 km/h (2 Bft)
31.12.2013 06:08 3,6 C 1,7 C 92 % 1016,9 hPa 0,0 l/m 0 min 2 min 0,0 UV-I 0 W/m 12,9 km/h (3 Bft)
31.12.2013 06:10 3,6 C 1,7 C 93 % 1017,0 hPa 0,0 l/m 0 min 0 min 0,0 UV-I 0 W/m 10,3 km/h (2 Bft)
31.12.2013 06:12 3,6 C 1,7 C 93 % 1017,0 hPa 0,0 l/m 0 min 0 min 0,0 UV-I 0 W/m 7,7 km/h (2 Bft)
31.12.2013 06:14 3,5 C 1,7 C 93 % 1017,0 hPa 0,0 l/m 0 min 0 min 0,0 UV-I 0 W/m 10,3 km/h (2 Bft)
31.12.2013 06:16 3,5 C 1,7 C 93 % 1016,9 hPa 0,0 l/m 0 min 0 min 0,0 UV-I 0 W/m 5,1 km/h (1 Bft)
31.12.2013 06:18 3,5 C 1,7 C 93 % 1017,0 hPa 0,0 l/m 0 min 0 min 0,0 UV-I 0 W/m 5,1 km/h (1 Bft)
31.12.2013 06:20 3,4 C 1,7 C 93 % 1016,9 hPa 0,0 l/m 0 min 0 min 0,0 UV-I 0 W/m 5,1 km/h (1 Bft)
31.12.2013 06:22 3,4 C 1,7 C 93 % 1016,9 hPa 0,0 l/m 0 min 0 min 0,0 UV-I 0 W/m 2,6 km/h (1 Bft)
31.12.2013 06:24 3,4 C 1,7 C 93 % 1017,0 hPa 0,0 l/m 0 min 0 min 0,0 UV-I 0 W/m 12,9 km/h (3 Bft)
31.12.2013 06:26 3,4 C 1,7 C 93 % 1017,0 hPa 0,0 l/m 0 min 0 min 0,0 UV-I 0 W/m 7,7 km/h (2 Bft)
31.12.2013 06:28 3,3 C 1,7 C 93 % 1017,0 hPa 0,0 l/m 0 min 0 min 0,0 UV-I 0 W/m 5,1 km/h (1 Bft)
31.12.2013 06:30 3,3 C 1,7 C 93 % 1017,0 hPa 0,0 l/m 0 min 0 min 0,0 UV-I 0 W/m 7,7 km/h (2 Bft)
31.12.2013 06:32 3,3 C 1,7 C 93 % 1017,0 hPa 0,0 l/m 0 min 0 min 0,0 UV-I 0 W/m 7,7 km/h (2 Bft)
31.12.2013 06:34 3,3 C 1,7 C 93 % 1016,9 hPa 0,0 l/m 0 min 0 min 0,0 UV-I 0 W/m 12,9 km/h (3 Bft)
31.12.2013 06:36 3,3 C 1,7 C 93 % 1016,9 hPa 0,0 l/m 0 min 0 min 0,0 UV-I 0 W/m 10,3 km/h (2 Bft)
31.12.2013 06:38 3,3 C 1,7 C 93 % 1016,9 hPa 0,0 l/m 0 min 0 min 0,0 UV-I 0 W/m 7,7 km/h (2 Bft)
31.12.2013 06:40 3,3 C 1,7 C 93 % 1016,9 hPa 0,0 l/m 0 min 0 min 0,0 UV-I 0 W/m 7,7 km/h (2 Bft)
31.12.2013 06:42 3,2 C 1,1 C 93 % 1016,9 hPa 0,0 l/m 0 min 0 min 0,0 UV-I 0 W/m 7,7 km/h (2 Bft)
31.12.2013 06:44 3,2 C 1,7 C 94 % 1017,0 hPa 0,0 l/m 0 min 0 min 0,0 UV-I 0 W/m 10,3 km/h (2 Bft)
31.12.2013 06:46 3,2 C 1,7 C 93 % 1016,9 hPa 0,0 l/m 0 min 0 min 0,0 UV-I 0 W/m 10,3 km/h (2 Bft)
31.12.2013 06:48 3,2 C 1,7 C 93 % 1017,0 hPa 0,0 l/m 0 min 0 min 0,0 UV-I 0 W/m 12,9 km/h (3 Bft)
31.12.2013 06:50 3,2 C 1,7 C 93 % 1017,0 hPa 0,0 l/m 0 min 0 min 0,0 UV-I 0 W/m 10,3 km/h (2 Bft)
31.12.2013 06:52 3,2 C 1,7 C 94 % 1017,1 hPa 0,0 l/m 0 min 0 min 0,0 UV-I 0 W/m 10,3 km/h (2 Bft)
31.12.2013 06:54 3,2 C 1,7 C 94 % 1017,1 hPa 0,0 l/m 0 min 0 min 0,0 UV-I 0 W/m 15,4 km/h (3 Bft)
31.12.2013 06:56 3,2 C 1,7 C 94 % 1017,1 hPa 0,0 l/m 0 min 0 min 0,0 UV-I 0 W/m 7,7 km/h (2 Bft)
31.12.2013 06:58 3,2 C 1,7 C 94 % 1017,0 hPa 0,0 l/m 0 min 0 min 0,0 UV-I 0 W/m 12,9 km/h (3 Bft)
31.12.2013 07:00 3,2 C 1,7 C 94 % 1017,0 hPa 0,0 l/m 0 min 0 min 0,0 UV-I 0 W/m 15,4 km/h (3 Bft)
31.12.2013 07:02 3,2 C 1,7 C 94 % 1017,0 hPa 0,0 l/m 0 min 0 min 0,0 UV-I 0 W/m 10,3 km/h (2 Bft)
31.12.2013 07:04 3,2 C 1,7 C 94 % 1017,0 hPa 0,0 l/m 0 min 0 min 0,0 UV-I 0 W/m 12,9 km/h (3 Bft)
31.12.2013 07:06 3,2 C 1,7 C 94 % 1017,1 hPa 0,0 l/m 0 min 0 min 0,0 UV-I 0 W/m 10,3 km/h (2 Bft)
31.12.2013 07:08 3,2 C 2,2 C 94 % 1016,9 hPa 0,0 l/m 0 min 0 min 0,0 UV-I 0 W/m 10,3 km/h (2 Bft)
31.12.2013 07:10 3,2 C 2,2 C 94 % 1016,9 hPa 0,0 l/m 0 min 0 min 0,0 UV-I 0 W/m 23,2 km/h (4 Bft)
31.12.2013 07:12 3,3 C 2,2 C 94 % 1016,8 hPa 0,0 l/m 0 min 2 min 0,0 UV-I 0 W/m 18,0 km/h (3 Bft)
31.12.2013 07:14 3,3 C 2,2 C 94 % 1016,8 hPa 0,0 l/m 0 min 2 min 0,0 UV-I 0 W/m 23,2 km/h (4 Bft)
31.12.2013 07:16 3,3 C 2,2 C 94 % 1016,8 hPa 0,0 l/m 0 min 2 min 0,0 UV-I 0 W/m 20,6 km/h (4 Bft)
31.12.2013 07:18 3,3 C 2,2 C 94 % 1016,8 hPa 0,0 l/m 0 min 2 min 0,0 UV-I 0 W/m 25,7 km/h (4 Bft)
31.12.2013 07:20 3,4 C 2,2 C 94 % 1016,8 hPa 0,0 l/m 0 min 2 min 0,0 UV-I 0 W/m 25,7 km/h (4 Bft)
31.12.2013 07:22 3,4 C 2,2 C 94 % 1016,7 hPa 0,0 l/m 0 min 0 min 0,0 UV-I 0 W/m 15,4 km/h (3 Bft)
31.12.2013 07:24 3,4 C 2,2 C 94 % 1016,6 hPa 0,0 l/m 0 min 0 min 0,0 UV-I 0 W/m 25,7 km/h (4 Bft)
31.12.2013 07:26 3,4 C 2,2 C 94 % 1016,6 hPa 0,0 l/m 0 min 2 min 0,0 UV-I 0 W/m 23,2 km/h (4 Bft)
31.12.2013 07:28 3,4 C 2,2 C 94 % 1016,6 hPa 0,0 l/m 0 min 0 min 0,0 UV-I 0 W/m 23,2 km/h (4 Bft)
31.12.2013 07:30 3,4 C 2,2 C 94 % 1016,4 hPa 0,0 l/m 0 min 2 min 0,0 UV-I 0 W/m 25,7 km/h (4 Bft)
31.12.2013 07:32 3,4 C 2,2 C 94 % 1016,5 hPa 0,0 l/m 0 min 0 min 0,0 UV-I 0 W/m 18,0 km/h (3 Bft)
31.12.2013 07:34 3,4 C 2,2 C 94 % 1016,6 hPa 0,0 l/m 0 min 2 min 0,0 UV-I 0 W/m 20,6 km/h (4 Bft)
31.12.2013 07:36 3,4 C 2,2 C 94 % 1016,6 hPa 0,0 l/m 0 min 0 min 0,0 UV-I 0 W/m 30,9 km/h (5 Bft)
31.12.2013 07:38 3,5 C 2,2 C 94 % 1016,6 hPa 0,0 l/m 0 min 0 min 0,0 UV-I 0 W/m 18,0 km/h (3 Bft)
31.12.2013 07:40 3,5 C 2,2 C 94 % 1016,6 hPa 0,0 l/m 0 min 0 min 0,0 UV-I 0 W/m 23,2 km/h (4 Bft)
31.12.2013 07:42 3,5 C 2,2 C 94 % 1016,6 hPa 0,0 l/m 0 min 0 min 0,0 UV-I 0 W/m 15,4 km/h (3 Bft)
31.12.2013 07:44 3,5 C 2,2 C 94 % 1016,6 hPa 0,0 l/m 0 min 0 min 0,0 UV-I 0 W/m 20,6 km/h (4 Bft)
31.12.2013 07:46 3,6 C 2,2 C 94 % 1016,6 hPa 0,0 l/m 0 min 0 min 0,0 UV-I 0 W/m 15,4 km/h (3 Bft)
31.12.2013 07:48 3,6 C 2,2 C 94 % 1016,5 hPa 0,0 l/m 0 min 0 min 0,0 UV-I 0 W/m 18,0 km/h (3 Bft)
31.12.2013 07:50 3,6 C 2,2 C 94 % 1016,5 hPa 0,0 l/m 0 min 0 min 0,0 UV-I 0 W/m 23,2 km/h (4 Bft)
31.12.2013 07:52 3,6 C 2,2 C 93 % 1016,6 hPa 0,0 l/m 0 min 0 min 0,0 UV-I 0 W/m 15,4 km/h (3 Bft)
31.12.2013 07:54 3,6 C 1,7 C 93 % 1016,5 hPa 0,0 l/m 0 min 0 min 0,0 UV-I 0 W/m 15,4 km/h (3 Bft)
31.12.2013 07:56 3,6 C 1,7 C 93 % 1016,4 hPa 0,0 l/m 0 min 0 min 0,0 UV-I 0 W/m 18,0 km/h (3 Bft)
31.12.2013 07:58 3,6 C 1,7 C 93 % 1016,5 hPa 0,0 l/m 0 min 0 min 0,0 UV-I 0 W/m 23,2 km/h (4 Bft)
31.12.2013 08:00 3,6 C 1,7 C 93 % 1016,5 hPa 0,0 l/m 0 min 0 min 0,0 UV-I 0 W/m 15,4 km/h (3 Bft)
31.12.2013 08:02 3,6 C 1,7 C 93 % 1016,5 hPa 0,0 l/m 0 min 0 min 0,0 UV-I 0 W/m 15,4 km/h (3 Bft)
31.12.2013 08:04 3,6 C 1,7 C 93 % 1016,5 hPa 0,0 l/m 0 min 0 min 0,0 UV-I 0 W/m 12,9 km/h (3 Bft)
31.12.2013 08:06 3,6 C 2,2 C 93 % 1016,6 hPa 0,0 l/m 0 min 0 min 0,0 UV-I 0 W/m 10,3 km/h (2 Bft)
31.12.2013 08:08 3,6 C 2,2 C 93 % 1016,6 hPa 0,0 l/m 0 min 0 min 0,0 UV-I 0 W/m 15,4 km/h (3 Bft)
31.12.2013 08:10 3,6 C 2,2 C 93 % 1016,6 hPa 0,0 l/m 0 min 0 min 0,0 UV-I 0 W/m 12,9 km/h (3 Bft)
31.12.2013 08:12 3,6 C 2,2 C 93 % 1016,6 hPa 0,0 l/m 0 min 0 min 0,0 UV-I 0 W/m 12,9 km/h (3 Bft)
31.12.2013 08:14 3,6 C 2,2 C 93 % 1016,6 hPa 0,0 l/m 0 min 0 min 0,0 UV-I 0 W/m 10,3 km/h (2 Bft)
31.12.2013 08:16 3,6 C 2,2 C 93 % 1016,6 hPa 0,0 l/m 0 min 0 min 0,0 UV-I 0 W/m 15,4 km/h (3 Bft)
31.12.2013 08:18 3,6 C 2,2 C 93 % 1016,5 hPa 0,0 l/m 0 min 0 min 0,0 UV-I 0 W/m 18,0 km/h (3 Bft)
31.12.2013 08:20 3,6 C 2,2 C 93 % 1016,5 hPa 0,0 l/m 0 min 0 min 0,0 UV-I 0 W/m 20,6 km/h (4 Bft)
31.12.2013 08:22 3,6 C 2,2 C 93 % 1016,4 hPa 0,0 l/m 0 min 0 min 0,0 UV-I 0 W/m 15,4 km/h (3 Bft)
31.12.2013 08:24 3,7 C 2,2 C 93 % 1016,4 hPa 0,0 l/m 0 min 0 min 0,0 UV-I 0 W/m 25,7 km/h (4 Bft)
31.12.2013 08:26 3,7 C 2,2 C 93 % 1016,3 hPa 0,0 l/m 0 min 0 min 0,0 UV-I 0 W/m 15,4 km/h (3 Bft)
31.12.2013 08:28 3,7 C 2,2 C 93 % 1016,3 hPa 0,0 l/m 0 min 0 min 0,0 UV-I 0 W/m 23,2 km/h (4 Bft)
31.12.2013 08:30 3,7 C 2,2 C 93 % 1016,3 hPa 0,0 l/m 0 min 0 min 0,0 UV-I 0 W/m 18,0 km/h (3 Bft)
31.12.2013 08:32 3,7 C 2,2 C 93 % 1016,2 hPa 0,0 l/m 0 min 0 min 0,0 UV-I 0 W/m 18,0 km/h (3 Bft)
31.12.2013 08:34 3,7 C 2,2 C 93 % 1016,2 hPa 0,0 l/m 0 min 0 min 0,0 UV-I 0 W/m 20,6 km/h (4 Bft)
31.12.2013 08:36 3,7 C 2,2 C 93 % 1016,2 hPa 0,0 l/m 0 min 0 min 0,0 UV-I 0 W/m 18,0 km/h (3 Bft)
31.12.2013 08:38 3,7 C 2,2 C 93 % 1016,2 hPa 0,0 l/m 0 min 0 min 0,0 UV-I 5 W/m 20,6 km/h (4 Bft)
31.12.2013 08:40 3,7 C 2,2 C 93 % 1016,2 hPa 0,0 l/m 0 min 0 min 0,0 UV-I 5 W/m 25,7 km/h (4 Bft)
31.12.2013 08:42 3,7 C 2,2 C 93 % 1016,2 hPa 0,0 l/m 0 min 0 min 0,0 UV-I 5 W/m 18,0 km/h (3 Bft)
31.12.2013 08:44 3,7 C 2,2 C 93 % 1016,1 hPa 0,0 l/m 0 min 0 min 0,0 UV-I 5 W/m 20,6 km/h (4 Bft)
31.12.2013 08:46 3,7 C 2,2 C 93 % 1016,1 hPa 0,0 l/m 0 min 0 min 0,0 UV-I 5 W/m 18,0 km/h (3 Bft)
31.12.2013 08:48 3,7 C 2,2 C 93 % 1016,1 hPa 0,0 l/m 0 min 0 min 0,0 UV-I 7 W/m 20,6 km/h (4 Bft)
31.12.2013 08:50 3,7 C 2,2 C 93 % 1016,2 hPa 0,0 l/m 0 min 0 min 0,0 UV-I 9 W/m 20,6 km/h (4 Bft)
31.12.2013 08:52 3,7 C 2,2 C 93 % 1016,0 hPa 0,0 l/m 0 min 0 min 0,0 UV-I 9 W/m 18,0 km/h (3 Bft)
31.12.2013 08:54 3,7 C 2,2 C 93 % 1016,0 hPa 0,0 l/m 0 min 0 min 0,0 UV-I 9 W/m 23,2 km/h (4 Bft)
31.12.2013 08:56 3,7 C 2,2 C 93 % 1016,1 hPa 0,0 l/m 0 min 0 min 0,0 UV-I 11 W/m 20,6 km/h (4 Bft)
31.12.2013 08:58 3,7 C 2,2 C 93 % 1016,0 hPa 0,0 l/m 0 min 0 min 0,0 UV-I 11 W/m 28,3 km/h (4 Bft)
31.12.2013 09:00 3,7 C 2,2 C 93 % 1015,9 hPa 0,0 l/m 0 min 0 min 0,0 UV-I 12 W/m 28,3 km/h (4 Bft)
31.12.2013 09:02 3,7 C 2,2 C 93 % 1015,9 hPa 0,0 l/m 0 min 0 min 0,0 UV-I 12 W/m 20,6 km/h (4 Bft)
31.12.2013 09:04 3,7 C 2,2 C 93 % 1015,8 hPa 0,0 l/m 0 min 0 min 0,0 UV-I 14 W/m 15,4 km/h (3 Bft)
31.12.2013 09:06 3,7 C 2,2 C 93 % 1015,8 hPa 0,0 l/m 0 min 0 min 0,0 UV-I 14 W/m 18,0 km/h (3 Bft)
31.12.2013 09:08 3,7 C 2,2 C 93 % 1015,7 hPa 0,0 l/m 0 min 0 min 0,0 UV-I 14 W/m 25,7 km/h (4 Bft)
31.12.2013 09:10 3,7 C 2,2 C 93 % 1015,8 hPa 0,0 l/m 0 min 0 min 0,0 UV-I 16 W/m 23,2 km/h (4 Bft)
31.12.2013 09:12 3,7 C 2,2 C 93 % 1015,8 hPa 0,0 l/m 0 min 0 min 0,0 UV-I 16 W/m 28,3 km/h (4 Bft)
31.12.2013 09:14 3,7 C 2,2 C 93 % 1015,8 hPa 0,0 l/m 0 min 0 min 0,0 UV-I 18 W/m 23,2 km/h (4 Bft)
31.12.2013 09:16 3,8 C 2,2 C 93 % 1015,8 hPa 0,0 l/m 0 min 0 min 0,0 UV-I 18 W/m 20,6 km/h (4 Bft)
31.12.2013 09:18 3,8 C 2,2 C 93 % 1015,9 hPa 0,0 l/m 0 min 0 min 0,0 UV-I 19 W/m 28,3 km/h (4 Bft)
31.12.2013 09:20 3,8 C 2,2 C 93 % 1015,8 hPa 0,0 l/m 0 min 0 min 0,0 UV-I 19 W/m 30,9 km/h (5 Bft)
31.12.2013 09:22 3,8 C 2,2 C 93 % 1016,0 hPa 0,0 l/m 0 min 0 min 0,0 UV-I 21 W/m 23,2 km/h (4 Bft)
31.12.2013 09:24 3,8 C 2,2 C 93 % 1016,0 hPa 0,0 l/m 0 min 0 min 0,0 UV-I 21 W/m 20,6 km/h (4 Bft)
31.12.2013 09:26 3,9 C 2,2 C 93 % 1016,1 hPa 0,0 l/m 0 min 0 min 0,0 UV-I 21 W/m 30,9 km/h (5 Bft)
31.12.2013 09:28 3,9 C 2,2 C 93 % 1016,0 hPa 0,0 l/m 0 min 0 min 0,0 UV-I 21 W/m 18,0 km/h (3 Bft)
31.12.2013 09:30 3,9 C 2,2 C 93 % 1015,9 hPa 0,0 l/m 0 min 0 min 0,0 UV-I 25 W/m 15,4 km/h (3 Bft)
31.12.2013 09:32 3,9 C 2,2 C 93 % 1015,9 hPa 0,0 l/m 0 min 0 min 0,0 UV-I 30 W/m 12,9 km/h (3 Bft)
31.12.2013 09:34 3,9 C 2,2 C 93 % 1015,8 hPa 0,0 l/m 0 min 0 min 0,0 UV-I 30 W/m 20,6 km/h (4 Bft)
31.12.2013 09:36 3,9 C 2,2 C 93 % 1015,8 hPa 0,0 l/m 0 min 0 min 0,0 UV-I 26 W/m 25,7 km/h (4 Bft)
31.12.2013 09:38 3,9 C 2,2 C 93 % 1015,8 hPa 0,0 l/m 0 min 0 min 0,0 UV-I 32 W/m 23,2 km/h (4 Bft)
31.12.2013 09:40 3,9 C 2,8 C 93 % 1015,9 hPa 0,0 l/m 0 min 0 min 0,0 UV-I 30 W/m 25,7 km/h (4 Bft)
31.12.2013 09:42 3,9 C 2,8 C 93 % 1015,9 hPa 0,0 l/m 0 min 0 min 0,0 UV-I 30 W/m 18,0 km/h (3 Bft)
31.12.2013 09:44 3,9 C 2,8 C 93 % 1015,9 hPa 0,0 l/m 0 min 0 min 0,0 UV-I 33 W/m 25,7 km/h (4 Bft)
31.12.2013 09:46 3,9 C 2,8 C 93 % 1015,8 hPa 0,0 l/m 0 min 0 min 0,0 UV-I 35 W/m 18,0 km/h (3 Bft)
31.12.2013 09:48 3,9 C 2,8 C 93 % 1015,9 hPa 0,0 l/m 0 min 0 min 0,0 UV-I 42 W/m 25,7 km/h (4 Bft)
31.12.2013 09:50 4,0 C 2,8 C 93 % 1015,9 hPa 0,0 l/m 0 min 0 min 0,0 UV-I 44 W/m 20,6 km/h (4 Bft)
31.12.2013 09:52 4,0 C 2,8 C 93 % 1015,8 hPa 0,0 l/m 0 min 0 min 0,0 UV-I 47 W/m 18,0 km/h (3 Bft)
31.12.2013 09:54 4,0 C 2,8 C 93 % 1015,8 hPa 0,0 l/m 0 min 0 min 0,0 UV-I 44 W/m 18,0 km/h (3 Bft)
31.12.2013 09:56 4,1 C 2,8 C 93 % 1015,7 hPa 0,0 l/m 0 min 0 min 0,0 UV-I 47 W/m 28,3 km/h (4 Bft)
31.12.2013 09:58 4,1 C 2,8 C 93 % 1015,7 hPa 0,0 l/m 0 min 0 min 0,0 UV-I 40 W/m 12,9 km/h (3 Bft)
31.12.2013 10:00 4,1 C 2,8 C 93 % 1015,7 hPa 0,0 l/m 0 min 0 min 0,0 UV-I 37 W/m 18,0 km/h (3 Bft)
31.12.2013 10:02 4,1 C 2,8 C 93 % 1015,7 hPa 0,0 l/m 0 min 0 min 0,0 UV-I 49 W/m 23,2 km/h (4 Bft)
31.12.2013 10:04 4,1 C 2,8 C 93 % 1015,7 hPa 0,0 l/m 0 min 0 min 0,0 UV-I 51 W/m 20,6 km/h (4 Bft)
31.12.2013 10:06 4,1 C 2,8 C 93 % 1015,7 hPa 0,0 l/m 0 min 0 min 0,0 UV-I 56 W/m 23,2 km/h (4 Bft)
31.12.2013 10:08 4,1 C 2,8 C 93 % 1015,8 hPa 0,0 l/m 0 min 0 min 0,0 UV-I 60 W/m 25,7 km/h (4 Bft)
31.12.2013 10:10 4,1 C 2,8 C 93 % 1015,7 hPa 0,0 l/m 0 min 0 min 0,0 UV-I 60 W/m 28,3 km/h (4 Bft)
31.12.2013 10:12 4,1 C 2,8 C 93 % 1015,7 hPa 0,0 l/m 0 min 0 min 0,0 UV-I 69 W/m 15,4 km/h (3 Bft)
31.12.2013 10:14 4,1 C 2,8 C 93 % 1015,6 hPa 0,0 l/m 0 min 0 min 0,0 UV-I 69 W/m 23,2 km/h (4 Bft)
31.12.2013 10:16 4,1 C 2,8 C 92 % 1015,7 hPa 0,0 l/m 0 min 0 min 0,0 UV-I 76 W/m 20,6 km/h (4 Bft)
31.12.2013 10:18 4,2 C 2,8 C 92 % 1015,7 hPa 0,0 l/m 0 min 0 min 0,0 UV-I 76 W/m 23,2 km/h (4 Bft)
31.12.2013 10:20 4,2 C 2,8 C 92 % 1015,7 hPa 0,0 l/m 0 min 0 min 0,0 UV-I 86 W/m 28,3 km/h (4 Bft)
31.12.2013 10:22 4,2 C 2,8 C 92 % 1015,7 hPa 0,0 l/m 0 min 0 min 0,0 UV-I 93 W/m 25,7 km/h (4 Bft)
31.12.2013 10:24 4,2 C 3,3 C 92 % 1015,6 hPa 0,0 l/m 2 min 0 min 0,0 UV-I 105 W/m 20,6 km/h (4 Bft)
31.12.2013 10:26 4,2 C 3,3 C 92 % 1015,6 hPa 0,0 l/m 2 min 0 min 0,0 UV-I 113 W/m 23,2 km/h (4 Bft)
31.12.2013 10:28 4,3 C 3,3 C 92 % 1015,7 hPa 0,0 l/m 2 min 0 min 0,0 UV-I 123 W/m 20,6 km/h (4 Bft)
31.12.2013 10:30 4,3 C 3,3 C 92 % 1015,7 hPa 0,0 l/m 2 min 0 min 0,0 UV-I 128 W/m 28,3 km/h (4 Bft)
31.12.2013 10:32 4,4 C 3,3 C 92 % 1015,7 hPa 0,0 l/m 2 min 0 min 0,0 UV-I 130 W/m 20,6 km/h (4 Bft)
31.12.2013 10:34 4,5 C 3,3 C 92 % 1015,6 hPa 0,0 l/m 2 min 0 min 0,0 UV-I 134 W/m 20,6 km/h (4 Bft)
31.12.2013 10:36 4,6 C 3,3 C 91 % 1015,6 hPa 0,0 l/m 2 min 0 min 0,0 UV-I 151 W/m 23,2 km/h (4 Bft)
31.12.2013 10:38 4,7 C 3,3 C 91 % 1015,6 hPa 0,0 l/m 2 min 0 min 0,0 UV-I 149 W/m 18,0 km/h (3 Bft)
31.12.2013 10:40 4,7 C 3,9 C 91 % 1015,6 hPa 0,0 l/m 2 min 0 min 0,0 UV-I 149 W/m 20,6 km/h (4 Bft)
31.12.2013 10:42 4,8 C 3,9 C 91 % 1015,6 hPa 0,0 l/m 2 min 0 min 0,0 UV-I 146 W/m 23,2 km/h (4 Bft)
31.12.2013 10:44 4,8 C 3,9 C 90 % 1015,6 hPa 0,0 l/m 2 min 0 min 0,0 UV-I 151 W/m 23,2 km/h (4 Bft)
31.12.2013 10:46 4,9 C 3,9 C 90 % 1015,6 hPa 0,0 l/m 2 min 0 min 0,0 UV-I 151 W/m 36,0 km/h (5 Bft)
31.12.2013 10:48 4,9 C 3,9 C 90 % 1015,5 hPa 0,0 l/m 2 min 0 min 0,0 UV-I 148 W/m 28,3 km/h (4 Bft)
31.12.2013 10:50 4,9 C 3,9 C 89 % 1015,5 hPa 0,0 l/m 2 min 0 min 0,0 UV-I 148 W/m 20,6 km/h (4 Bft)
31.12.2013 10:52 4,9 C 3,9 C 89 % 1015,5 hPa 0,0 l/m 2 min 0 min 0,0 UV-I 156 W/m 23,2 km/h (4 Bft)
31.12.2013 10:54 5,0 C 3,9 C 89 % 1015,4 hPa 0,0 l/m 2 min 0 min 0,0 UV-I 169 W/m 25,7 km/h (4 Bft)
31.12.2013 10:56 5,1 C 3,9 C 89 % 1015,4 hPa 0,0 l/m 2 min 0 min 0,0 UV-I 163 W/m 28,3 km/h (4 Bft)
31.12.2013 10:58 5,1 C 3,9 C 89 % 1015,4 hPa 0,0 l/m 2 min 0 min 0,0 UV-I 192 W/m 20,6 km/h (4 Bft)
31.12.2013 11:00 5,2 C 3,9 C 89 % 1015,3 hPa 0,0 l/m 2 min 0 min 0,0 UV-I 195 W/m 20,6 km/h (4 Bft)
31.12.2013 11:02 5,2 C 3,9 C 89 % 1015,3 hPa 0,0 l/m 2 min 0 min 0,0 UV-I 190 W/m 28,3 km/h (4 Bft)
31.12.2013 11:04 5,3 C 3,9 C 88 % 1015,3 hPa 0,0 l/m 2 min 0 min 0,0 UV-I 204 W/m 23,2 km/h (4 Bft)
31.12.2013 11:06 5,3 C 4,4 C 88 % 1015,3 hPa 0,0 l/m 2 min 0 min 0,0 UV-I 206 W/m 15,4 km/h (3 Bft)
31.12.2013 11:08 5,4 C 4,4 C 88 % 1015,3 hPa 0,0 l/m 2 min 0 min 0,0 UV-I 192 W/m 25,7 km/h (4 Bft)
31.12.2013 11:10 5,4 C 4,4 C 88 % 1015,2 hPa 0,0 l/m 2 min 0 min 0,0 UV-I 167 W/m 12,9 km/h (3 Bft)
31.12.2013 11:12 5,5 C 4,4 C 88 % 1015,2 hPa 0,0 l/m 2 min 0 min 0,0 UV-I 186 W/m 23,2 km/h (4 Bft)
31.12.2013 11:14 5,6 C 4,4 C 88 % 1015,2 hPa 0,0 l/m 2 min 0 min 0,0 UV-I 179 W/m 25,7 km/h (4 Bft)
31.12.2013 11:16 5,6 C 4,4 C 87 % 1015,1 hPa 0,0 l/m 2 min 0 min 0,0 UV-I 155 W/m 25,7 km/h (4 Bft)
31.12.2013 11:18 5,7 C 4,4 C 87 % 1015,1 hPa 0,0 l/m 2 min 0 min 0,0 UV-I 176 W/m 18,0 km/h (3 Bft)
31.12.2013 11:20 5,7 C 4,4 C 87 % 1015,0 hPa 0,0 l/m 2 min 0 min 0,0 UV-I 172 W/m 20,6 km/h (4 Bft)
31.12.2013 11:22 5,7 C 4,4 C 87 % 1014,9 hPa 0,0 l/m 2 min 0 min 0,0 UV-I 192 W/m 25,7 km/h (4 Bft)
31.12.2013 11:24 5,8 C 4,4 C 87 % 1014,9 hPa 0,0 l/m 2 min 0 min 0,0 UV-I 199 W/m 20,6 km/h (4 Bft)
31.12.2013 11:26 5,8 C 4,4 C 87 % 1014,9 hPa 0,0 l/m 2 min 0 min 0,0 UV-I 207 W/m 28,3 km/h (4 Bft)
31.12.2013 11:28 5,9 C 4,4 C 87 % 1014,9 hPa 0,0 l/m 2 min 0 min 0,0 UV-I 214 W/m 23,2 km/h (4 Bft)
31.12.2013 11:30 5,9 C 4,4 C 87 % 1014,8 hPa 0,0 l/m 2 min 0 min 0,0 UV-I 199 W/m 23,2 km/h (4 Bft)
31.12.2013 11:32 5,9 C 4,4 C 86 % 1014,8 hPa 0,0 l/m 2 min 0 min 0,0 UV-I 209 W/m 28,3 km/h (4 Bft)
31.12.2013 11:34 6,0 C 4,4 C 86 % 1014,7 hPa 0,0 l/m 2 min 0 min 0,0 UV-I 225 W/m 30,9 km/h (5 Bft)
31.12.2013 11:36 6,1 C 4,4 C 86 % 1014,7 hPa 0,0 l/m 2 min 0 min 0,0 UV-I 232 W/m 25,7 km/h (4 Bft)
31.12.2013 11:38 6,1 C 4,4 C 86 % 1014,7 hPa 0,0 l/m 2 min 0 min 0,0 UV-I 206 W/m 28,3 km/h (4 Bft)
31.12.2013 11:40 6,2 C 5,0 C 86 % 1014,7 hPa 0,0 l/m 2 min 0 min 0,0 UV-I 239 W/m 23,2 km/h (4 Bft)
31.12.2013 11:42 6,3 C 5,0 C 86 % 1014,6 hPa 0,0 l/m 2 min 0 min 0,0 UV-I 214 W/m 20,6 km/h (4 Bft)
31.12.2013 11:44 6,3 C 5,0 C 85 % 1014,6 hPa 0,0 l/m 2 min 0 min 0,0 UV-I 230 W/m 23,2 km/h (4 Bft)
31.12.2013 11:46 6,3 C 5,0 C 85 % 1014,5 hPa 0,0 l/m 2 min 0 min 0,0 UV-I 211 W/m 30,9 km/h (5 Bft)
31.12.2013 11:48 6,4 C 5,0 C 85 % 1014,5 hPa 0,0 l/m 0 min 0 min 0,0 UV-I 141 W/m 33,5 km/h (5 Bft)
31.12.2013 11:50 6,4 C 5,0 C 85 % 1014,4 hPa 0,0 l/m 0 min 0 min 0,0 UV-I 120 W/m 23,2 km/h (4 Bft)
31.12.2013 11:52 6,3 C 5,0 C 85 % 1014,4 hPa 0,0 l/m 0 min 0 min 0,0 UV-I 132 W/m 20,6 km/h (4 Bft)
31.12.2013 11:54 6,3 C 5,0 C 85 % 1014,2 hPa 0,0 l/m 0 min 0 min 0,0 UV-I 130 W/m 25,7 km/h (4 Bft)
31.12.2013 11:56 6,2 C 5,0 C 85 % 1014,2 hPa 0,0 l/m 0 min 0 min 0,0 UV-I 121 W/m 23,2 km/h (4 Bft)
31.12.2013 11:58 6,2 C 5,0 C 85 % 1014,2 hPa 0,0 l/m 2 min 0 min 0,0 UV-I 178 W/m 33,5 km/h (5 Bft)
31.12.2013 12:00 6,1 C 5,0 C 85 % 1014,1 hPa 0,0 l/m 2 min 0 min 0,0 UV-I 174 W/m 23,2 km/h (4 Bft)
31.12.2013 12:02 6,2 C 5,0 C 85 % 1014,1 hPa 0,0 l/m 0 min 0 min 0,0 UV-I 125 W/m 18,0 km/h (3 Bft)
31.12.2013 12:04 6,2 C 5,0 C 85 % 1014,1 hPa 0,0 l/m 0 min 0 min 0,0 UV-I 109 W/m 15,4 km/h (3 Bft)
31.12.2013 12:06 6,2 C 5,0 C 85 % 1014,1 hPa 0,0 l/m 0 min 0 min 0,0 UV-I 104 W/m 12,9 km/h (3 Bft)
31.12.2013 12:08 6,1 C 5,0 C 85 % 1014,1 hPa 0,0 l/m 0 min 0 min 0,0 UV-I 104 W/m 12,9 km/h (3 Bft)
31.12.2013 12:10 6,1 C 5,0 C 85 % 1014,0 hPa 0,0 l/m 0 min 0 min 0,0 UV-I 104 W/m 18,0 km/h (3 Bft)
31.12.2013 12:12 6,1 C 5,0 C 86 % 1014,0 hPa 0,0 l/m 0 min 0 min 0,0 UV-I 102 W/m 15,4 km/h (3 Bft)
31.12.2013 12:14 6,1 C 5,0 C 86 % 1014,0 hPa 0,0 l/m 0 min 0 min 0,0 UV-I 98 W/m 10,3 km/h (2 Bft)
31.12.2013 12:16 6,1 C 5,0 C 86 % 1014,0 hPa 0,0 l/m 0 min 0 min 0,0 UV-I 102 W/m 15,4 km/h (3 Bft)
31.12.2013 12:18 6,1 C 5,0 C 85 % 1013,9 hPa 0,0 l/m 0 min 0 min 0,0 UV-I 107 W/m 20,6 km/h (4 Bft)
31.12.2013 12:20 6,1 C 5,0 C 86 % 1013,9 hPa 0,0 l/m 0 min 0 min 0,0 UV-I 111 W/m 18,0 km/h (3 Bft)
31.12.2013 12:22 6,1 C 5,0 C 86 % 1013,8 hPa 0,0 l/m 0 min 0 min 0,0 UV-I 116 W/m 18,0 km/h (3 Bft)
31.12.2013 12:24 6,1 C 5,6 C 85 % 1013,7 hPa 0,0 l/m 0 min 0 min 0,0 UV-I 128 W/m 25,7 km/h (4 Bft)
31.12.2013 12:26 6,2 C 5,6 C 85 % 1013,6 hPa 0,0 l/m 0 min 0 min 0,0 UV-I 132 W/m 15,4 km/h (3 Bft)
31.12.2013 12:28 6,3 C 5,6 C 85 % 1013,7 hPa 0,0 l/m 0 min 0 min 0,0 UV-I 148 W/m 18,0 km/h (3 Bft)
31.12.2013 12:30 6,3 C 5,6 C 85 % 1013,6 hPa 0,0 l/m 0 min 0 min 0,0 UV-I 146 W/m 18,0 km/h (3 Bft)
31.12.2013 12:32 6,4 C 5,6 C 85 % 1013,6 hPa 0,0 l/m 0 min 0 min 0,0 UV-I 148 W/m 23,2 km/h (4 Bft)
31.12.2013 12:34 6,4 C 5,6 C 84 % 1013,6 hPa 0,0 l/m 2 min 0 min 0,0 UV-I 174 W/m 25,7 km/h (4 Bft)
31.12.2013 12:36 6,5 C 5,6 C 84 % 1013,6 hPa 0,0 l/m 2 min 0 min 0,0 UV-I 163 W/m 25,7 km/h (4 Bft)
31.12.2013 12:38 6,6 C 5,6 C 84 % 1013,6 hPa 0,0 l/m 0 min 0 min 0,0 UV-I 142 W/m 23,2 km/h (4 Bft)
31.12.2013 12:40 6,6 C 5,6 C 84 % 1013,5 hPa 0,0 l/m 0 min 0 min 0,0 UV-I 142 W/m 28,3 km/h (4 Bft)
31.12.2013 12:42 6,6 C 5,6 C 83 % 1013,6 hPa 0,0 l/m 0 min 0 min 0,0 UV-I 139 W/m 23,2 km/h (4 Bft)
31.12.2013 12:44 6,6 C 5,6 C 83 % 1013,5 hPa 0,0 l/m 0 min 0 min 0,0 UV-I 132 W/m 23,2 km/h (4 Bft)
31.12.2013 12:46 6,6 C 5,6 C 83 % 1013,5 hPa 0,0 l/m 0 min 0 min 0,0 UV-I 128 W/m 15,4 km/h (3 Bft)
31.12.2013 12:48 6,7 C 5,6 C 83 % 1013,5 hPa 0,0 l/m 0 min 0 min 0,0 UV-I 130 W/m 18,0 km/h (3 Bft)
31.12.2013 12:50 6,7 C 5,6 C 83 % 1013,5 hPa 0,0 l/m 0 min 0 min 0,0 UV-I 135 W/m 18,0 km/h (3 Bft)
31.12.2013 12:52 6,7 C 5,6 C 83 % 1013,5 hPa 0,0 l/m 0 min 0 min 0,0 UV-I 146 W/m 28,3 km/h (4 Bft)
31.12.2013 12:54 6,7 C 5,6 C 83 % 1013,4 hPa 0,0 l/m 0 min 0 min 0,0 UV-I 144 W/m 25,7 km/h (4 Bft)
31.12.2013 12:56 6,7 C 5,6 C 83 % 1013,3 hPa 0,0 l/m 0 min 0 min 0,0 UV-I 137 W/m 25,7 km/h (4 Bft)
31.12.2013 12:58 6,7 C 5,6 C 83 % 1013,3 hPa 0,0 l/m 0 min 0 min 0,0 UV-I 135 W/m 23,2 km/h (4 Bft)
31.12.2013 13:00 6,7 C 5,6 C 82 % 1013,3 hPa 0,0 l/m 0 min 0 min 0,0 UV-I 135 W/m 25,7 km/h (4 Bft)
31.12.2013 13:02 6,7 C 5,6 C 82 % 1013,3 hPa 0,0 l/m 0 min 0 min 0,0 UV-I 134 W/m 20,6 km/h (4 Bft)
31.12.2013 13:04 6,7 C 5,6 C 82 % 1013,2 hPa 0,0 l/m 2 min 0 min 0,0 UV-I 153 W/m 20,6 km/h (4 Bft)
31.12.2013 13:06 6,8 C 5,6 C 82 % 1013,2 hPa 0,0 l/m 2 min 0 min 0,0 UV-I 178 W/m 30,9 km/h (5 Bft)
31.12.2013 13:08 6,8 C 5,6 C 82 % 1013,2 hPa 0,0 l/m 2 min 0 min 0,0 UV-I 192 W/m 20,6 km/h (4 Bft)
31.12.2013 13:10 6,9 C 5,6 C 82 % 1013,2 hPa 0,0 l/m 2 min 0 min 0,0 UV-I 192 W/m 18,0 km/h (3 Bft)
31.12.2013 13:12 7,0 C 5,6 C 81 % 1013,1 hPa 0,0 l/m 2 min 0 min 0,0 UV-I 188 W/m 15,4 km/h (3 Bft)
31.12.2013 13:14 7,1 C 5,6 C 81 % 1013,1 hPa 0,0 l/m 2 min 0 min 0,0 UV-I 176 W/m 25,7 km/h (4 Bft)
31.12.2013 13:16 7,1 C 5,6 C 81 % 1013,0 hPa 0,0 l/m 2 min 0 min 0,0 UV-I 195 W/m 18,0 km/h (3 Bft)
31.12.2013 13:18 7,2 C 6,1 C 81 % 1013,1 hPa 0,0 l/m 2 min 0 min 0,0 UV-I 188 W/m 20,6 km/h (4 Bft)
31.12.2013 13:20 7,2 C 6,1 C 81 % 1013,1 hPa 0,0 l/m 2 min 0 min 0,0 UV-I 197 W/m 23,2 km/h (4 Bft)
31.12.2013 13:22 7,2 C 6,1 C 80 % 1013,1 hPa 0,0 l/m 2 min 0 min 0,0 UV-I 179 W/m 20,6 km/h (4 Bft)
31.12.2013 13:24 7,3 C 6,1 C 80 % 1012,9 hPa 0,0 l/m 2 min 0 min 0,0 UV-I 197 W/m 18,0 km/h (3 Bft)
31.12.2013 13:26 7,3 C 6,1 C 80 % 1012,9 hPa 0,0 l/m 2 min 0 min 0,0 UV-I 195 W/m 20,6 km/h (4 Bft)
31.12.2013 13:28 7,3 C 6,1 C 81 % 1012,9 hPa 0,0 l/m 2 min 0 min 0,0 UV-I 195 W/m 15,4 km/h (3 Bft)
31.12.2013 13:30 7,4 C 6,1 C 80 % 1012,9 hPa 0,0 l/m 2 min 0 min 0,0 UV-I 190 W/m 28,3 km/h (4 Bft)
31.12.2013 13:32 7,4 C 6,1 C 80 % 1012,9 hPa 0,0 l/m 2 min 0 min 0,0 UV-I 188 W/m 20,6 km/h (4 Bft)
31.12.2013 13:34 7,4 C 6,1 C 79 % 1012,8 hPa 0,0 l/m 2 min 0 min 0,0 UV-I 185 W/m 23,2 km/h (4 Bft)
31.12.2013 13:36 7,4 C 6,1 C 79 % 1012,8 hPa 0,0 l/m 2 min 0 min 0,0 UV-I 178 W/m 23,2 km/h (4 Bft)
31.12.2013 13:38 7,4 C 6,1 C 79 % 1012,8 hPa 0,0 l/m 2 min 0 min 0,0 UV-I 181 W/m 25,7 km/h (4 Bft)
31.12.2013 13:40 7,4 C 6,1 C 79 % 1012,8 hPa 0,0 l/m 2 min 0 min 0,0 UV-I 176 W/m 23,2 km/h (4 Bft)
31.12.2013 13:42 7,5 C 6,1 C 79 % 1012,8 hPa 0,0 l/m 2 min 0 min 0,0 UV-I 172 W/m 20,6 km/h (4 Bft)
31.12.2013 13:44 7,5 C 6,1 C 79 % 1012,8 hPa 0,0 l/m 2 min 0 min 0,0 UV-I 174 W/m 15,4 km/h (3 Bft)
31.12.2013 13:46 7,5 C 6,1 C 79 % 1012,8 hPa 0,0 l/m 2 min 0 min 0,0 UV-I 156 W/m 25,7 km/h (4 Bft)
31.12.2013 13:48 7,4 C 6,1 C 79 % 1012,7 hPa 0,0 l/m 2 min 0 min 0,0 UV-I 167 W/m 20,6 km/h (4 Bft)
31.12.2013 13:50 7,4 C 6,1 C 79 % 1012,7 hPa 0,0 l/m 2 min 0 min 0,0 UV-I 155 W/m 18,0 km/h (3 Bft)
31.12.2013 13:52 7,4 C 6,1 C 79 % 1012,6 hPa 0,0 l/m 0 min 0 min 0,0 UV-I 135 W/m 15,4 km/h (3 Bft)
31.12.2013 13:54 7,4 C 6,1 C 79 % 1012,6 hPa 0,0 l/m 2 min 0 min 0,0 UV-I 139 W/m 20,6 km/h (4 Bft)
31.12.2013 13:56 7,4 C 6,1 C 79 % 1012,6 hPa 0,0 l/m 2 min 0 min 0,0 UV-I 137 W/m 30,9 km/h (5 Bft)
31.12.2013 13:58 7,4 C 6,1 C 79 % 1012,5 hPa 0,0 l/m 2 min 0 min 0,0 UV-I 148 W/m 23,2 km/h (4 Bft)
31.12.2013 14:00 7,3 C 6,1 C 79 % 1012,5 hPa 0,0 l/m 2 min 0 min 0,0 UV-I 162 W/m 20,6 km/h (4 Bft)
31.12.2013 14:02 7,4 C 6,1 C 79 % 1012,4 hPa 0,0 l/m 2 min 0 min 0,0 UV-I 155 W/m 12,9 km/h (3 Bft)
31.12.2013 14:04 7,4 C 6,1 C 79 % 1012,3 hPa 0,0 l/m 2 min 0 min 0,0 UV-I 135 W/m 18,0 km/h (3 Bft)
31.12.2013 14:06 7,4 C 6,1 C 79 % 1012,3 hPa 0,0 l/m 2 min 0 min 0,0 UV-I 142 W/m 23,2 km/h (4 Bft)
31.12.2013 14:08 7,4 C 6,1 C 79 % 1012,3 hPa 0,0 l/m 2 min 0 min 0,0 UV-I 146 W/m 18,0 km/h (3 Bft)
31.12.2013 14:10 7,4 C 6,1 C 79 % 1012,3 hPa 0,0 l/m 2 min 0 min 0,0 UV-I 144 W/m 18,0 km/h (3 Bft)
31.12.2013 14:12 7,4 C 6,1 C 79 % 1012,3 hPa 0,0 l/m 2 min 0 min 0,0 UV-I 130 W/m 15,4 km/h (3 Bft)
31.12.2013 14:14 7,4 C 6,1 C 79 % 1012,3 hPa 0,0 l/m 2 min 0 min 0,0 UV-I 134 W/m 20,6 km/h (4 Bft)
31.12.2013 14:16 7,5 C 6,1 C 79 % 1012,3 hPa 0,0 l/m 2 min 0 min 0,0 UV-I 130 W/m 12,9 km/h (3 Bft)
31.12.2013 14:18 7,5 C 6,1 C 79 % 1012,2 hPa 0,0 l/m 2 min 0 min 0,0 UV-I 125 W/m 15,4 km/h (3 Bft)
31.12.2013 14:20 7,5 C 6,1 C 79 % 1012,1 hPa 0,0 l/m 2 min 0 min 0,0 UV-I 121 W/m 15,4 km/h (3 Bft)
31.12.2013 14:22 7,5 C 6,1 C 79 % 1012,2 hPa 0,0 l/m 0 min 0 min 0,0 UV-I 118 W/m 20,6 km/h (4 Bft)
31.12.2013 14:24 7,5 C 6,1 C 79 % 1012,1 hPa 0,0 l/m 0 min 0 min 0,0 UV-I 116 W/m 18,0 km/h (3 Bft)
31.12.2013 14:26 7,5 C 6,1 C 79 % 1012,1 hPa 0,0 l/m 0 min 0 min 0,0 UV-I 109 W/m 15,4 km/h (3 Bft)
31.12.2013 14:28 7,5 C 6,1 C 79 % 1012,1 hPa 0,0 l/m 0 min 0 min 0,0 UV-I 105 W/m 12,9 km/h (3 Bft)
31.12.2013 14:30 7,4 C 6,1 C 79 % 1012,1 hPa 0,0 l/m 0 min 0 min 0,0 UV-I 104 W/m 12,9 km/h (3 Bft)
31.12.2013 14:32 7,4 C 6,1 C 79 % 1012,0 hPa 0,0 l/m 0 min 0 min 0,0 UV-I 107 W/m 12,9 km/h (3 Bft)
31.12.2013 14:34 7,4 C 6,1 C 79 % 1012,0 hPa 0,0 l/m 0 min 0 min 0,0 UV-I 109 W/m 10,3 km/h (2 Bft)
31.12.2013 14:36 7,4 C 6,1 C 79 % 1011,9 hPa 0,0 l/m 0 min 0 min 0,0 UV-I 105 W/m 12,9 km/h (3 Bft)
31.12.2013 14:38 7,4 C 6,1 C 79 % 1011,9 hPa 0,0 l/m 2 min 0 min 0,0 UV-I 111 W/m 18,0 km/h (3 Bft)
31.12.2013 14:40 7,4 C 6,1 C 79 % 1011,9 hPa 0,0 l/m 2 min 0 min 0,0 UV-I 111 W/m 10,3 km/h (2 Bft)
31.12.2013 14:42 7,4 C 6,1 C 79 % 1011,9 hPa 0,0 l/m 2 min 0 min 0,0 UV-I 114 W/m 10,3 km/h (2 Bft)
31.12.2013 14:44 7,5 C 6,1 C 79 % 1011,9 hPa 0,0 l/m 2 min 0 min 0,0 UV-I 113 W/m 12,9 km/h (3 Bft)
31.12.2013 14:46 7,4 C 6,1 C 79 % 1011,8 hPa 0,0 l/m 0 min 0 min 0,0 UV-I 95 W/m 15,4 km/h (3 Bft)
31.12.2013 14:48 7,4 C 6,1 C 79 % 1011,9 hPa 0,0 l/m 0 min 0 min 0,0 UV-I 91 W/m 18,0 km/h (3 Bft)
31.12.2013 14:50 7,4 C 6,1 C 79 % 1011,8 hPa 0,0 l/m 0 min 0 min 0,0 UV-I 88 W/m 12,9 km/h (3 Bft)
31.12.2013 14:52 7,4 C 6,1 C 79 % 1011,8 hPa 0,0 l/m 0 min 0 min 0,0 UV-I 83 W/m 12,9 km/h (3 Bft)
31.12.2013 14:54 7,4 C 6,1 C 79 % 1011,8 hPa 0,0 l/m 0 min 0 min 0,0 UV-I 81 W/m 20,6 km/h (4 Bft)
31.12.2013 14:56 7,4 C 6,1 C 79 % 1011,6 hPa 0,0 l/m 0 min 0 min 0,0 UV-I 79 W/m 10,3 km/h (2 Bft)
31.12.2013 14:58 7,4 C 6,1 C 79 % 1011,6 hPa 0,0 l/m 0 min 0 min 0,0 UV-I 79 W/m 15,4 km/h (3 Bft)
31.12.2013 15:00 7,3 C 6,1 C 79 % 1011,6 hPa 0,0 l/m 0 min 0 min 0,0 UV-I 77 W/m 12,9 km/h (3 Bft)
31.12.2013 15:02 7,3 C 6,1 C 78 % 1011,6 hPa 0,0 l/m 0 min 0 min 0,0 UV-I 74 W/m 15,4 km/h (3 Bft)
31.12.2013 15:04 7,3 C 6,1 C 78 % 1011,5 hPa 0,0 l/m 0 min 0 min 0,0 UV-I 72 W/m 12,9 km/h (3 Bft)
31.12.2013 15:06 7,4 C 6,1 C 78 % 1011,5 hPa 0,0 l/m 0 min 0 min 0,0 UV-I 72 W/m 25,7 km/h (4 Bft)
31.12.2013 15:08 7,4 C 6,1 C 78 % 1011,6 hPa 0,0 l/m 0 min 0 min 0,0 UV-I 70 W/m 20,6 km/h (4 Bft)
31.12.2013 15:10 7,4 C 6,1 C 77 % 1011,5 hPa 0,0 l/m 0 min 0 min 0,0 UV-I 69 W/m 18,0 km/h (3 Bft)
31.12.2013 15:12 7,4 C 6,1 C 77 % 1011,4 hPa 0,0 l/m 0 min 0 min 0,0 UV-I 65 W/m 12,9 km/h (3 Bft)
31.12.2013 15:14 7,4 C 6,1 C 77 % 1011,4 hPa 0,0 l/m 0 min 0 min 0,0 UV-I 62 W/m 23,2 km/h (4 Bft)
31.12.2013 15:16 7,4 C 6,1 C 77 % 1011,4 hPa 0,0 l/m 0 min 0 min 0,0 UV-I 60 W/m 23,2 km/h (4 Bft)
31.12.2013 15:18 7,4 C 6,1 C 77 % 1011,4 hPa 0,0 l/m 0 min 0 min 0,0 UV-I 58 W/m 23,2 km/h (4 Bft)
31.12.2013 15:20 7,4 C 6,1 C 77 % 1011,4 hPa 0,0 l/m 0 min 0 min 0,0 UV-I 56 W/m 25,7 km/h (4 Bft)
31.12.2013 15:22 7,5 C 6,1 C 76 % 1011,3 hPa 0,0 l/m 0 min 0 min 0,0 UV-I 54 W/m 20,6 km/h (4 Bft)
31.12.2013 15:24 7,5 C 6,1 C 76 % 1011,3 hPa 0,0 l/m 0 min 0 min 0,0 UV-I 53 W/m 18,0 km/h (3 Bft)
31.12.2013 15:26 7,5 C 6,1 C 76 % 1011,4 hPa 0,0 l/m 0 min 0 min 0,0 UV-I 49 W/m 18,0 km/h (3 Bft)
31.12.2013 15:28 7,5 C 6,1 C 76 % 1011,3 hPa 0,0 l/m 0 min 0 min 0,0 UV-I 47 W/m 18,0 km/h (3 Bft)
31.12.2013 15:30 7,5 C 6,1 C 76 % 1011,3 hPa 0,0 l/m 0 min 0 min 0,0 UV-I 46 W/m 15,4 km/h (3 Bft)
31.12.2013 15:32 7,5 C 6,1 C 76 % 1011,3 hPa 0,0 l/m 0 min 0 min 0,0 UV-I 44 W/m 15,4 km/h (3 Bft)
31.12.2013 15:34 7,5 C 6,1 C 76 % 1011,3 hPa 0,0 l/m 0 min 0 min 0,0 UV-I 42 W/m 28,3 km/h (4 Bft)
31.12.2013 15:36 7,4 C 6,1 C 76 % 1011,2 hPa 0,0 l/m 0 min 0 min 0,0 UV-I 39 W/m 28,3 km/h (4 Bft)
31.12.2013 15:38 7,4 C 6,1 C 76 % 1011,2 hPa 0,0 l/m 0 min 0 min 0,0 UV-I 37 W/m 15,4 km/h (3 Bft)
31.12.2013 15:40 7,4 C 6,1 C 76 % 1011,1 hPa 0,0 l/m 0 min 0 min 0,0 UV-I 33 W/m 15,4 km/h (3 Bft)
31.12.2013 15:42 7,4 C 6,1 C 76 % 1011,0 hPa 0,0 l/m 0 min 0 min 0,0 UV-I 32 W/m 15,4 km/h (3 Bft)
31.12.2013 15:44 7,4 C 5,6 C 76 % 1011,1 hPa 0,0 l/m 0 min 0 min 0,0 UV-I 28 W/m 12,9 km/h (3 Bft)
31.12.2013 15:46 7,3 C 5,6 C 76 % 1011,0 hPa 0,0 l/m 0 min 0 min 0,0 UV-I 23 W/m 18,0 km/h (3 Bft)
31.12.2013 15:48 7,3 C 5,6 C 76 % 1011,0 hPa 0,0 l/m 0 min 0 min 0,0 UV-I 21 W/m 20,6 km/h (4 Bft)
31.12.2013 15:50 7,3 C 5,6 C 76 % 1011,0 hPa 0,0 l/m 0 min 0 min 0,0 UV-I 21 W/m 12,9 km/h (3 Bft)
31.12.2013 15:52 7,3 C 5,6 C 76 % 1011,0 hPa 0,0 l/m 0 min 0 min 0,0 UV-I 23 W/m 18,0 km/h (3 Bft)
31.12.2013 15:54 7,3 C 5,6 C 76 % 1011,0 hPa 0,0 l/m 0 min 0 min 0,0 UV-I 21 W/m 20,6 km/h (4 Bft)
31.12.2013 15:56 7,3 C 5,6 C 76 % 1011,0 hPa 0,0 l/m 0 min 0 min 0,0 UV-I 21 W/m 10,3 km/h (2 Bft)
31.12.2013 15:58 7,3 C 5,6 C 76 % 1011,0 hPa 0,0 l/m 0 min 0 min 0,0 UV-I 21 W/m 10,3 km/h (2 Bft)
31.12.2013 16:00 7,3 C 5,6 C 76 % 1010,9 hPa 0,0 l/m 0 min 0 min 0,0 UV-I 19 W/m 2,6 km/h (1 Bft)
31.12.2013 16:02 7,2 C 5,6 C 76 % 1010,9 hPa 0,0 l/m 0 min 0 min 0,0 UV-I 19 W/m 12,9 km/h (3 Bft)
31.12.2013 16:04 7,2 C 5,6 C 76 % 1011,0 hPa 0,0 l/m 0 min 0 min 0,0 UV-I 18 W/m 15,4 km/h (3 Bft)
31.12.2013 16:06 7,2 C 5,6 C 76 % 1011,1 hPa 0,0 l/m 0 min 0 min 0,0 UV-I 16 W/m 12,9 km/h (3 Bft)
31.12.2013 16:08 7,2 C 5,6 C 76 % 1011,0 hPa 0,0 l/m 0 min 0 min 0,0 UV-I 14 W/m 7,7 km/h (2 Bft)
31.12.2013 16:10 7,2 C 5,6 C 76 % 1011,0 hPa 0,0 l/m 0 min 0 min 0,0 UV-I 14 W/m 18,0 km/h (3 Bft)
31.12.2013 16:12 7,2 C 5,6 C 76 % 1011,1 hPa 0,0 l/m 0 min 0 min 0,0 UV-I 12 W/m 12,9 km/h (3 Bft)
31.12.2013 16:14 7,2 C 5,6 C 76 % 1011,1 hPa 0,0 l/m 0 min 0 min 0,0 UV-I 11 W/m 15,4 km/h (3 Bft)
31.12.2013 16:16 7,1 C 5,6 C 76 % 1011,1 hPa 0,0 l/m 0 min 0 min 0,0 UV-I 11 W/m 15,4 km/h (3 Bft)
31.12.2013 16:18 7,1 C 5,6 C 75 % 1011,1 hPa 0,0 l/m 0 min 0 min 0,0 UV-I 9 W/m 15,4 km/h (3 Bft)
31.12.2013 16:20 7,1 C 5,6 C 75 % 1011,1 hPa 0,0 l/m 0 min 0 min 0,0 UV-I 7 W/m 15,4 km/h (3 Bft)
31.12.2013 16:22 7,1 C 5,6 C 75 % 1011,1 hPa 0,0 l/m 0 min 0 min 0,0 UV-I 7 W/m 23,2 km/h (4 Bft)
31.12.2013 16:24 7,0 C 5,6 C 75 % 1011,1 hPa 0,0 l/m 0 min 0 min 0,0 UV-I 7 W/m 23,2 km/h (4 Bft)
31.12.2013 16:26 7,0 C 5,6 C 75 % 1011,0 hPa 0,0 l/m 0 min 0 min 0,0 UV-I 5 W/m 20,6 km/h (4 Bft)
31.12.2013 16:28 6,9 C 5,6 C 75 % 1011,1 hPa 0,0 l/m 0 min 0 min 0,0 UV-I 5 W/m 15,4 km/h (3 Bft)
31.12.2013 16:30 6,9 C 5,6 C 75 % 1010,9 hPa 0,0 l/m 0 min 0 min 0,0 UV-I 0 W/m 15,4 km/h (3 Bft)
31.12.2013 16:32 6,9 C 5,0 C 75 % 1011,0 hPa 0,0 l/m 0 min 0 min 0,0 UV-I 0 W/m 18,0 km/h (3 Bft)
31.12.2013 16:34 6,9 C 5,0 C 75 % 1011,0 hPa 0,0 l/m 0 min 0 min 0,0 UV-I 0 W/m 18,0 km/h (3 Bft)
31.12.2013 16:36 6,9 C 5,0 C 75 % 1011,0 hPa 0,0 l/m 0 min 0 min 0,0 UV-I 0 W/m 18,0 km/h (3 Bft)
31.12.2013 16:38 6,8 C 5,0 C 75 % 1010,9 hPa 0,0 l/m 0 min 0 min 0,0 UV-I 0 W/m 20,6 km/h (4 Bft)
31.12.2013 16:40 6,8 C 5,0 C 75 % 1010,8 hPa 0,0 l/m 0 min 0 min 0,0 UV-I 0 W/m 18,0 km/h (3 Bft)
31.12.2013 16:42 6,8 C 5,0 C 75 % 1010,8 hPa 0,0 l/m 0 min 0 min 0,0 UV-I 0 W/m 15,4 km/h (3 Bft)
31.12.2013 16:44 6,8 C 5,6 C 75 % 1010,8 hPa 0,0 l/m 0 min 0 min 0,0 UV-I 0 W/m 18,0 km/h (3 Bft)
31.12.2013 16:46 6,8 C 5,0 C 75 % 1010,8 hPa 0,0 l/m 0 min 0 min 0,0 UV-I 0 W/m 23,2 km/h (4 Bft)
31.12.2013 16:48 6,8 C 5,0 C 75 % 1010,8 hPa 0,0 l/m 0 min 0 min 0,0 UV-I 0 W/m 20,6 km/h (4 Bft)
31.12.2013 16:50 6,8 C 5,0 C 75 % 1010,7 hPa 0,0 l/m 0 min 0 min 0,0 UV-I 0 W/m 18,0 km/h (3 Bft)
31.12.2013 16:52 6,8 C 5,0 C 75 % 1010,8 hPa 0,0 l/m 0 min 0 min 0,0 UV-I 0 W/m 18,0 km/h (3 Bft)
31.12.2013 16:54 6,8 C 5,0 C 75 % 1010,9 hPa 0,0 l/m 0 min 0 min 0,0 UV-I 0 W/m 28,3 km/h (4 Bft)
31.12.2013 16:56 6,8 C 5,0 C 74 % 1010,9 hPa 0,0 l/m 0 min 0 min 0,0 UV-I 0 W/m 20,6 km/h (4 Bft)
31.12.2013 16:58 6,8 C 5,0 C 75 % 1011,0 hPa 0,0 l/m 0 min 0 min 0,0 UV-I 0 W/m 23,2 km/h (4 Bft)
31.12.2013 17:00 6,9 C 5,0 C 74 % 1011,0 hPa 0,0 l/m 0 min 0 min 0,0 UV-I 0 W/m 15,4 km/h (3 Bft)
31.12.2013 17:02 6,9 C 5,0 C 74 % 1011,0 hPa 0,0 l/m 0 min 0 min 0,0 UV-I 0 W/m 15,4 km/h (3 Bft)
31.12.2013 17:04 6,9 C 5,0 C 74 % 1011,0 hPa 0,0 l/m 0 min 0 min 0,0 UV-I 0 W/m 38,6 km/h (5 Bft)
31.12.2013 17:06 6,9 C 5,0 C 73 % 1010,9 hPa 0,0 l/m 0 min 0 min 0,0 UV-I 0 W/m 18,0 km/h (3 Bft)
31.12.2013 17:08 6,9 C 5,0 C 74 % 1010,8 hPa 0,0 l/m 0 min 0 min 0,0 UV-I 0 W/m 30,9 km/h (5 Bft)
31.12.2013 17:10 6,9 C 5,0 C 73 % 1010,7 hPa 0,0 l/m 0 min 0 min 0,0 UV-I 0 W/m 30,9 km/h (5 Bft)
31.12.2013 17:12 6,9 C 5,6 C 73 % 1010,7 hPa 0,0 l/m 0 min 0 min 0,0 UV-I 0 W/m 25,7 km/h (4 Bft)
31.12.2013 17:14 6,9 C 5,6 C 73 % 1010,7 hPa 0,0 l/m 0 min 0 min 0,0 UV-I 0 W/m 20,6 km/h (4 Bft)
31.12.2013 17:16 6,9 C 5,0 C 73 % 1010,6 hPa 0,0 l/m 0 min 0 min 0,0 UV-I 0 W/m 20,6 km/h (4 Bft)
31.12.2013 17:18 6,9 C 5,0 C 73 % 1010,7 hPa 0,0 l/m 0 min 0 min 0,0 UV-I 0 W/m 25,7 km/h (4 Bft)
31.12.2013 17:20 6,9 C 5,6 C 73 % 1010,6 hPa 0,0 l/m 0 min 0 min 0,0 UV-I 0 W/m 23,2 km/h (4 Bft)
31.12.2013 17:22 6,9 C 5,6 C 73 % 1010,7 hPa 0,0 l/m 0 min 0 min 0,0 UV-I 0 W/m 25,7 km/h (4 Bft)
31.12.2013 17:24 6,9 C 5,0 C 73 % 1010,7 hPa 0,0 l/m 0 min 0 min 0,0 UV-I 0 W/m 20,6 km/h (4 Bft)
31.12.2013 17:26 6,9 C 5,0 C 73 % 1010,7 hPa 0,0 l/m 0 min 0 min 0,0 UV-I 0 W/m 25,7 km/h (4 Bft)
31.12.2013 17:28 6,9 C 5,0 C 73 % 1010,7 hPa 0,0 l/m 0 min 0 min 0,0 UV-I 0 W/m 15,4 km/h (3 Bft)
31.12.2013 17:30 6,8 C 5,0 C 73 % 1010,6 hPa 0,0 l/m 0 min 0 min 0,0 UV-I 0 W/m 12,9 km/h (3 Bft)
31.12.2013 17:32 6,8 C 5,0 C 73 % 1010,6 hPa 0,0 l/m 0 min 0 min 0,0 UV-I 0 W/m 12,9 km/h (3 Bft)
31.12.2013 17:34 6,8 C 5,0 C 73 % 1010,6 hPa 0,0 l/m 0 min 0 min 0,0 UV-I 0 W/m 20,6 km/h (4 Bft)
31.12.2013 17:36 6,8 C 5,0 C 73 % 1010,7 hPa 0,0 l/m 0 min 0 min 0,0 UV-I 0 W/m 12,9 km/h (3 Bft)
31.12.2013 17:38 6,8 C 5,0 C 73 % 1010,8 hPa 0,0 l/m 0 min 0 min 0,0 UV-I 0 W/m 20,6 km/h (4 Bft)
31.12.2013 17:40 6,8 C 5,0 C 73 % 1010,7 hPa 0,0 l/m 0 min 0 min 0,0 UV-I 0 W/m 18,0 km/h (3 Bft)
31.12.2013 17:42 6,8 C 5,0 C 73 % 1010,7 hPa 0,0 l/m 0 min 0 min 0,0 UV-I 0 W/m 18,0 km/h (3 Bft)
31.12.2013 17:44 6,8 C 5,0 C 73 % 1010,7 hPa 0,0 l/m 0 min 0 min 0,0 UV-I 0 W/m 23,2 km/h (4 Bft)
31.12.2013 17:46 6,8 C 5,0 C 73 % 1010,5 hPa 0,0 l/m 0 min 0 min 0,0 UV-I 0 W/m 23,2 km/h (4 Bft)
31.12.2013 17:48 6,8 C 5,0 C 73 % 1010,5 hPa 0,0 l/m 0 min 0 min 0,0 UV-I 0 W/m 23,2 km/h (4 Bft)
31.12.2013 17:50 6,8 C 5,0 C 73 % 1010,5 hPa 0,0 l/m 0 min 0 min 0,0 UV-I 0 W/m 36,0 km/h (5 Bft)
31.12.2013 17:52 6,8 C 5,0 C 73 % 1010,4 hPa 0,0 l/m 0 min 0 min 0,0 UV-I 0 W/m 18,0 km/h (3 Bft)
31.12.2013 17:54 6,7 C 5,0 C 73 % 1010,4 hPa 0,0 l/m 0 min 0 min 0,0 UV-I 0 W/m 20,6 km/h (4 Bft)
31.12.2013 17:56 6,7 C 5,0 C 73 % 1010,3 hPa 0,0 l/m 0 min 0 min 0,0 UV-I 0 W/m 20,6 km/h (4 Bft)
31.12.2013 17:58 6,7 C 5,0 C 73 % 1010,4 hPa 0,0 l/m 0 min 0 min 0,0 UV-I 0 W/m 23,2 km/h (4 Bft)
31.12.2013 18:00 6,7 C 5,0 C 73 % 1010,4 hPa 0,0 l/m 0 min 0 min 0,0 UV-I 0 W/m 15,4 km/h (3 Bft)
31.12.2013 18:02 6,7 C 5,0 C 73 % 1010,4 hPa 0,0 l/m 0 min 0 min 0,0 UV-I 0 W/m 25,7 km/h (4 Bft)
31.12.2013 18:04 6,7 C 5,0 C 74 % 1010,3 hPa 0,0 l/m 0 min 0 min 0,0 UV-I 0 W/m 23,2 km/h (4 Bft)
31.12.2013 18:06 6,7 C 5,0 C 74 % 1010,2 hPa 0,0 l/m 0 min 0 min 0,0 UV-I 0 W/m 20,6 km/h (4 Bft)
31.12.2013 18:08 6,7 C 5,0 C 74 % 1010,2 hPa 0,0 l/m 0 min 0 min 0,0 UV-I 0 W/m 28,3 km/h (4 Bft)
31.12.2013 18:10 6,7 C 5,0 C 74 % 1010,3 hPa 0,0 l/m 0 min 0 min 0,0 UV-I 0 W/m 15,4 km/h (3 Bft)
31.12.2013 18:12 6,6 C 5,0 C 74 % 1010,4 hPa 0,0 l/m 0 min 0 min 0,0 UV-I 0 W/m 30,9 km/h (5 Bft)
31.12.2013 18:14 6,6 C 5,0 C 74 % 1010,2 hPa 0,0 l/m 0 min 0 min 0,0 UV-I 0 W/m 23,2 km/h (4 Bft)
31.12.2013 18:16 6,6 C 5,0 C 74 % 1010,2 hPa 0,0 l/m 0 min 0 min 0,0 UV-I 0 W/m 15,4 km/h (3 Bft)
31.12.2013 18:18 6,6 C 5,0 C 74 % 1010,4 hPa 0,0 l/m 0 min 0 min 0,0 UV-I 0 W/m 33,5 km/h (5 Bft)
31.12.2013 18:20 6,6 C 5,0 C 74 % 1010,2 hPa 0,0 l/m 0 min 0 min 0,0 UV-I 0 W/m 18,0 km/h (3 Bft)
31.12.2013 18:22 6,5 C 5,0 C 74 % 1010,2 hPa 0,0 l/m 0 min 0 min 0,0 UV-I 0 W/m 20,6 km/h (4 Bft)
31.12.2013 18:24 6,5 C 5,0 C 74 % 1010,1 hPa 0,0 l/m 0 min 0 min 0,0 UV-I 0 W/m 23,2 km/h (4 Bft)
31.12.2013 18:26 6,4 C 5,0 C 74 % 1010,1 hPa 0,0 l/m 0 min 0 min 0,0 UV-I 0 W/m 23,2 km/h (4 Bft)
31.12.2013 18:28 6,4 C 5,0 C 74 % 1010,1 hPa 0,0 l/m 0 min 0 min 0,0 UV-I 0 W/m 23,2 km/h (4 Bft)
31.12.2013 18:30 6,4 C 5,0 C 74 % 1010,1 hPa 0,0 l/m 0 min 0 min 0,0 UV-I 0 W/m 20,6 km/h (4 Bft)
31.12.2013 18:32 6,4 C 5,0 C 74 % 1010,1 hPa 0,0 l/m 0 min 0 min 0,0 UV-I 0 W/m 33,5 km/h (5 Bft)
31.12.2013 18:34 6,4 C 5,0 C 74 % 1010,1 hPa 0,0 l/m 0 min 0 min 0,0 UV-I 0 W/m 33,5 km/h (5 Bft)
31.12.2013 18:36 6,4 C 5,0 C 74 % 1010,0 hPa 0,0 l/m 0 min 0 min 0,0 UV-I 0 W/m 23,2 km/h (4 Bft)
31.12.2013 18:38 6,4 C 5,0 C 74 % 1010,0 hPa 0,0 l/m 0 min 0 min 0,0 UV-I 0 W/m 43,8 km/h (6 Bft)
31.12.2013 18:40 6,4 C 5,0 C 74 % 1010,0 hPa 0,0 l/m 0 min 0 min 0,0 UV-I 0 W/m 33,5 km/h (5 Bft)
31.12.2013 18:42 6,4 C 5,0 C 74 % 1009,9 hPa 0,0 l/m 0 min 0 min 0,0 UV-I 0 W/m 30,9 km/h (5 Bft)
31.12.2013 18:44 6,4 C 4,4 C 74 % 1009,9 hPa 0,0 l/m 0 min 0 min 0,0 UV-I 0 W/m 18,0 km/h (3 Bft)
31.12.2013 18:46 6,4 C 4,4 C 74 % 1009,9 hPa 0,0 l/m 0 min 0 min 0,0 UV-I 0 W/m 20,6 km/h (4 Bft)
31.12.2013 18:48 6,3 C 4,4 C 74 % 1009,9 hPa 0,0 l/m 0 min 0 min 0,0 UV-I 0 W/m 20,6 km/h (4 Bft)
31.12.2013 18:50 6,3 C 4,4 C 74 % 1009,9 hPa 0,0 l/m 0 min 0 min 0,0 UV-I 0 W/m 25,7 km/h (4 Bft)
31.12.2013 18:52 6,3 C 4,4 C 74 % 1009,8 hPa 0,0 l/m 0 min 0 min 0,0 UV-I 0 W/m 15,4 km/h (3 Bft)
31.12.2013 18:54 6,2 C 4,4 C 74 % 1009,7 hPa 0,0 l/m 0 min 0 min 0,0 UV-I 0 W/m 20,6 km/h (4 Bft)
31.12.2013 18:56 6,2 C 4,4 C 74 % 1009,7 hPa 0,0 l/m 0 min 0 min 0,0 UV-I 0 W/m 23,2 km/h (4 Bft)
31.12.2013 18:58 6,2 C 4,4 C 74 % 1009,7 hPa 0,0 l/m 0 min 0 min 0,0 UV-I 0 W/m 23,2 km/h (4 Bft)
31.12.2013 19:00 6,2 C 4,4 C 74 % 1009,6 hPa 0,0 l/m 0 min 0 min 0,0 UV-I 0 W/m 23,2 km/h (4 Bft)
31.12.2013 19:02 6,2 C 4,4 C 74 % 1009,5 hPa 0,0 l/m 0 min 0 min 0,0 UV-I 0 W/m 23,2 km/h (4 Bft)
31.12.2013 19:04 6,2 C 4,4 C 74 % 1009,6 hPa 0,0 l/m 0 min 0 min 0,0 UV-I 0 W/m 28,3 km/h (4 Bft)
31.12.2013 19:06 6,2 C 4,4 C 74 % 1009,5 hPa 0,0 l/m 0 min 0 min 0,0 UV-I 0 W/m 18,0 km/h (3 Bft)
31.12.2013 19:08 6,2 C 4,4 C 74 % 1009,5 hPa 0,0 l/m 0 min 0 min 0,0 UV-I 0 W/m 33,5 km/h (5 Bft)
31.12.2013 19:10 6,2 C 4,4 C 74 % 1009,4 hPa 0,0 l/m 0 min 0 min 0,0 UV-I 0 W/m 23,2 km/h (4 Bft)
31.12.2013 19:12 6,2 C 4,4 C 74 % 1009,4 hPa 0,0 l/m 0 min 0 min 0,0 UV-I 0 W/m 18,0 km/h (3 Bft)
31.12.2013 19:14 6,2 C 4,4 C 74 % 1009,4 hPa 0,0 l/m 0 min 0 min 0,0 UV-I 0 W/m 23,2 km/h (4 Bft)
31.12.2013 19:16 6,2 C 4,4 C 74 % 1009,4 hPa 0,0 l/m 0 min 0 min 0,0 UV-I 0 W/m 28,3 km/h (4 Bft)
31.12.2013 19:18 6,2 C 4,4 C 74 % 1009,4 hPa 0,0 l/m 0 min 0 min 0,0 UV-I 0 W/m 28,3 km/h (4 Bft)
31.12.2013 19:20 6,2 C 4,4 C 74 % 1009,4 hPa 0,0 l/m 0 min 0 min 0,0 UV-I 0 W/m 23,2 km/h (4 Bft)
31.12.2013 19:22 6,2 C 4,4 C 74 % 1009,4 hPa 0,0 l/m 0 min 0 min 0,0 UV-I 0 W/m 36,0 km/h (5 Bft)
31.12.2013 19:24 6,2 C 4,4 C 74 % 1009,4 hPa 0,0 l/m 0 min 0 min 0,0 UV-I 0 W/m 28,3 km/h (4 Bft)
31.12.2013 19:26 6,2 C 4,4 C 74 % 1009,4 hPa 0,0 l/m 0 min 0 min 0,0 UV-I 0 W/m 20,6 km/h (4 Bft)
31.12.2013 19:28 6,2 C 4,4 C 74 % 1009,4 hPa 0,0 l/m 0 min 0 min 0,0 UV-I 0 W/m 18,0 km/h (3 Bft)
31.12.2013 19:30 6,2 C 4,4 C 74 % 1009,3 hPa 0,0 l/m 0 min 0 min 0,0 UV-I 0 W/m 20,6 km/h (4 Bft)
31.12.2013 19:32 6,2 C 4,4 C 74 % 1009,4 hPa 0,0 l/m 0 min 0 min 0,0 UV-I 0 W/m 18,0 km/h (3 Bft)
31.12.2013 19:34 6,2 C 4,4 C 74 % 1009,3 hPa 0,0 l/m 0 min 0 min 0,0 UV-I 0 W/m 30,9 km/h (5 Bft)
31.12.2013 19:36 6,1 C 4,4 C 74 % 1009,4 hPa 0,0 l/m 0 min 0 min 0,0 UV-I 0 W/m 28,3 km/h (4 Bft)
31.12.2013 19:38 6,1 C 4,4 C 74 % 1009,4 hPa 0,0 l/m 0 min 0 min 0,0 UV-I 0 W/m 33,5 km/h (5 Bft)
31.12.2013 19:40 6,1 C 4,4 C 74 % 1009,3 hPa 0,0 l/m 0 min 0 min 0,0 UV-I 0 W/m 36,0 km/h (5 Bft)
31.12.2013 19:42 6,1 C 4,4 C 74 % 1009,4 hPa 0,0 l/m 0 min 0 min 0,0 UV-I 0 W/m 25,7 km/h (4 Bft)
31.12.2013 19:44 6,0 C 4,4 C 74 % 1009,4 hPa 0,0 l/m 0 min 0 min 0,0 UV-I 0 W/m 18,0 km/h (3 Bft)
31.12.2013 19:46 6,0 C 4,4 C 74 % 1009,4 hPa 0,0 l/m 0 min 0 min 0,0 UV-I 0 W/m 12,9 km/h (3 Bft)
31.12.2013 19:48 6,0 C 4,4 C 74 % 1009,3 hPa 0,0 l/m 0 min 0 min 0,0 UV-I 0 W/m 28,3 km/h (4 Bft)
31.12.2013 19:50 6,0 C 4,4 C 74 % 1009,2 hPa 0,0 l/m 0 min 0 min 0,0 UV-I 0 W/m 20,6 km/h (4 Bft)
31.12.2013 19:52 5,9 C 4,4 C 73 % 1009,4 hPa 0,0 l/m 0 min 0 min 0,0 UV-I 0 W/m 23,2 km/h (4 Bft)
31.12.2013 19:54 5,9 C 4,4 C 73 % 1009,4 hPa 0,0 l/m 0 min 0 min 0,0 UV-I 0 W/m 25,7 km/h (4 Bft)
31.12.2013 19:56 5,9 C 3,9 C 74 % 1009,4 hPa 0,0 l/m 0 min 0 min 0,0 UV-I 0 W/m 20,6 km/h (4 Bft)
31.12.2013 19:58 5,9 C 4,4 C 74 % 1009,3 hPa 0,0 l/m 0 min 0 min 0,0 UV-I 0 W/m 18,0 km/h (3 Bft)
31.12.2013 20:00 5,9 C 4,4 C 74 % 1009,3 hPa 0,0 l/m 0 min 0 min 0,0 UV-I 0 W/m 25,7 km/h (4 Bft)
31.12.2013 20:02 5,9 C 4,4 C 74 % 1009,4 hPa 0,0 l/m 0 min 0 min 0,0 UV-I 0 W/m 25,7 km/h (4 Bft)
31.12.2013 20:04 5,9 C 4,4 C 74 % 1009,2 hPa 0,0 l/m 0 min 0 min 0,0 UV-I 0 W/m 23,2 km/h (4 Bft)
31.12.2013 20:06 5,9 C 3,9 C 74 % 1009,3 hPa 0,0 l/m 0 min 0 min 0,0 UV-I 0 W/m 33,5 km/h (5 Bft)
31.12.2013 20:08 5,8 C 3,9 C 74 % 1009,4 hPa 0,0 l/m 0 min 0 min 0,0 UV-I 0 W/m 23,2 km/h (4 Bft)
31.12.2013 20:10 5,8 C 3,9 C 74 % 1009,4 hPa 0,0 l/m 0 min 0 min 0,0 UV-I 0 W/m 28,3 km/h (4 Bft)
31.12.2013 20:12 5,8 C 3,9 C 74 % 1009,4 hPa 0,0 l/m 0 min 0 min 0,0 UV-I 0 W/m 25,7 km/h (4 Bft)
31.12.2013 20:14 5,8 C 3,9 C 74 % 1009,3 hPa 0,0 l/m 0 min 0 min 0,0 UV-I 0 W/m 23,2 km/h (4 Bft)
31.12.2013 20:16 5,8 C 3,9 C 75 % 1009,3 hPa 0,0 l/m 0 min 0 min 0,0 UV-I 0 W/m 20,6 km/h (4 Bft)
31.12.2013 20:18 5,8 C 4,4 C 75 % 1009,3 hPa 0,0 l/m 0 min 0 min 0,0 UV-I 0 W/m 25,7 km/h (4 Bft)
31.12.2013 20:20 5,8 C 4,4 C 75 % 1009,2 hPa 0,0 l/m 0 min 0 min 0,0 UV-I 0 W/m 25,7 km/h (4 Bft)
31.12.2013 20:22 5,8 C 4,4 C 75 % 1009,2 hPa 0,0 l/m 0 min 0 min 0,0 UV-I 0 W/m 23,2 km/h (4 Bft)
31.12.2013 20:24 5,8 C 4,4 C 75 % 1009,3 hPa 0,0 l/m 0 min 0 min 0,0 UV-I 0 W/m 18,0 km/h (3 Bft)
31.12.2013 20:26 5,8 C 4,4 C 75 % 1009,3 hPa 0,0 l/m 0 min 0 min 0,0 UV-I 0 W/m 23,2 km/h (4 Bft)
31.12.2013 20:28 5,8 C 4,4 C 75 % 1009,3 hPa 0,0 l/m 0 min 0 min 0,0 UV-I 0 W/m 20,6 km/h (4 Bft)
31.12.2013 20:30 5,8 C 4,4 C 75 % 1009,3 hPa 0,0 l/m 0 min 0 min 0,0 UV-I 0 W/m 15,4 km/h (3 Bft)
31.12.2013 20:32 5,8 C 4,4 C 75 % 1009,3 hPa 0,0 l/m 0 min 0 min 0,0 UV-I 0 W/m 18,0 km/h (3 Bft)
31.12.2013 20:34 5,7 C 4,4 C 75 % 1009,3 hPa 0,0 l/m 0 min 0 min 0,0 UV-I 0 W/m 20,6 km/h (4 Bft)
31.12.2013 20:36 5,8 C 4,4 C 75 % 1009,4 hPa 0,0 l/m 0 min 0 min 0,0 UV-I 0 W/m 20,6 km/h (4 Bft)
31.12.2013 20:38 5,7 C 4,4 C 75 % 1009,3 hPa 0,0 l/m 0 min 0 min 0,0 UV-I 0 W/m 25,7 km/h (4 Bft)
31.12.2013 20:40 5,7 C 4,4 C 75 % 1009,4 hPa 0,0 l/m 0 min 0 min 0,0 UV-I 0 W/m 41,2 km/h (6 Bft)
31.12.2013 20:42 5,7 C 4,4 C 75 % 1009,3 hPa 0,0 l/m 0 min 0 min 0,0 UV-I 0 W/m 25,7 km/h (4 Bft)
31.12.2013 20:44 5,7 C 4,4 C 75 % 1009,3 hPa 0,0 l/m 0 min 0 min 0,0 UV-I 0 W/m 23,2 km/h (4 Bft)
31.12.2013 20:46 5,7 C 4,4 C 75 % 1009,2 hPa 0,0 l/m 0 min 0 min 0,0 UV-I 0 W/m 25,7 km/h (4 Bft)
31.12.2013 20:48 5,7 C 4,4 C 76 % 1009,3 hPa 0,0 l/m 0 min 0 min 0,0 UV-I 0 W/m 20,6 km/h (4 Bft)
31.12.2013 20:50 5,7 C 3,9 C 76 % 1009,2 hPa 0,0 l/m 0 min 0 min 0,0 UV-I 0 W/m 18,0 km/h (3 Bft)
31.12.2013 20:52 5,7 C 3,9 C 76 % 1009,2 hPa 0,0 l/m 0 min 0 min 0,0 UV-I 0 W/m 23,2 km/h (4 Bft)
31.12.2013 20:54 5,7 C 3,9 C 76 % 1009,2 hPa 0,0 l/m 0 min 0 min 0,0 UV-I 0 W/m 23,2 km/h (4 Bft)
31.12.2013 20:56 5,7 C 3,9 C 79 % 1009,2 hPa 0,0 l/m 0 min 0 min 0,0 UV-I 0 W/m 18,0 km/h (3 Bft)
31.12.2013 20:58 5,7 C 4,4 C 76 % 1009,1 hPa 0,0 l/m 0 min 0 min 0,0 UV-I 0 W/m 28,3 km/h (4 Bft)
31.12.2013 21:00 5,7 C 4,4 C 79 % 1009,2 hPa 0,0 l/m 0 min 0 min 0,0 UV-I 0 W/m 18,0 km/h (3 Bft)
31.12.2013 21:02 5,7 C 4,4 C 79 % 1009,1 hPa 0,0 l/m 0 min 0 min 0,0 UV-I 0 W/m 18,0 km/h (3 Bft)
31.12.2013 21:04 5,7 C 4,4 C 75 % 1009,0 hPa 0,0 l/m 0 min 0 min 0,0 UV-I 0 W/m 30,9 km/h (5 Bft)
31.12.2013 21:06 5,7 C 4,4 C 75 % 1009,0 hPa 0,0 l/m 0 min 0 min 0,0 UV-I 0 W/m 23,2 km/h (4 Bft)
31.12.2013 21:08 5,7 C 4,4 C 75 % 1009,1 hPa 0,0 l/m 0 min 0 min 0,0 UV-I 0 W/m 33,5 km/h (5 Bft)
31.12.2013 21:10 5,7 C 4,4 C 75 % 1009,1 hPa 0,0 l/m 0 min 0 min 0,0 UV-I 0 W/m 28,3 km/h (4 Bft)
31.12.2013 21:12 5,7 C 4,4 C 75 % 1009,1 hPa 0,0 l/m 0 min 0 min 0,0 UV-I 0 W/m 25,7 km/h (4 Bft)
31.12.2013 21:14 5,7 C 4,4 C 75 % 1009,1 hPa 0,0 l/m 0 min 0 min 0,0 UV-I 0 W/m 25,7 km/h (4 Bft)
31.12.2013 21:16 5,7 C 4,4 C 75 % 1009,0 hPa 0,0 l/m 0 min 0 min 0,0 UV-I 0 W/m 30,9 km/h (5 Bft)
31.12.2013 21:18 5,7 C 4,4 C 75 % 1009,0 hPa 0,0 l/m 0 min 0 min 0,0 UV-I 0 W/m 23,2 km/h (4 Bft)
31.12.2013 21:20 5,7 C 4,4 C 75 % 1009,0 hPa 0,0 l/m 0 min 0 min 0,0 UV-I 0 W/m 18,0 km/h (3 Bft)
31.12.2013 21:22 5,7 C 4,4 C 75 % 1009,1 hPa 0,0 l/m 0 min 0 min 0,0 UV-I 0 W/m 28,3 km/h (4 Bft)
31.12.2013 21:24 5,7 C 4,4 C 75 % 1009,2 hPa 0,0 l/m 0 min 0 min 0,0 UV-I 0 W/m 33,5 km/h (5 Bft)
31.12.2013 21:26 5,7 C 4,4 C 75 % 1009,1 hPa 0,0 l/m 0 min 0 min 0,0 UV-I 0 W/m 23,2 km/h (4 Bft)
31.12.2013 21:28 5,7 C 4,4 C 75 % 1009,2 hPa 0,0 l/m 0 min 0 min 0,0 UV-I 0 W/m 15,4 km/h (3 Bft)
31.12.2013 21:30 5,7 C 4,4 C 75 % 1009,2 hPa 0,0 l/m 0 min 0 min 0,0 UV-I 0 W/m 15,4 km/h (3 Bft)
31.12.2013 21:32 5,7 C 4,4 C 76 % 1009,1 hPa 0,0 l/m 0 min 0 min 0,0 UV-I 0 W/m 20,6 km/h (4 Bft)
31.12.2013 21:34 5,7 C 4,4 C 79 % 1009,0 hPa 0,0 l/m 0 min 0 min 0,0 UV-I 0 W/m 15,4 km/h (3 Bft)
31.12.2013 21:36 5,7 C 3,9 C 76 % 1009,0 hPa 0,0 l/m 0 min 0 min 0,0 UV-I 0 W/m 25,7 km/h (4 Bft)
31.12.2013 21:38 5,6 C 3,9 C 76 % 1009,0 hPa 0,0 l/m 0 min 0 min 0,0 UV-I 0 W/m 23,2 km/h (4 Bft)
31.12.2013 21:40 5,6 C 3,9 C 76 % 1008,9 hPa 0,0 l/m 0 min 0 min 0,0 UV-I 0 W/m 23,2 km/h (4 Bft)
31.12.2013 21:42 5,6 C 3,9 C 76 % 1008,9 hPa 0,0 l/m 0 min 0 min 0,0 UV-I 0 W/m 25,7 km/h (4 Bft)
31.12.2013 21:44 5,6 C 4,4 C 76 % 1008,9 hPa 0,0 l/m 0 min 0 min 0,0 UV-I 0 W/m 25,7 km/h (4 Bft)
31.12.2013 21:46 5,6 C 4,4 C 76 % 1008,7 hPa 0,0 l/m 0 min 0 min 0,0 UV-I 0 W/m 25,7 km/h (4 Bft)
31.12.2013 21:48 5,6 C 4,4 C 76 % 1008,7 hPa 0,0 l/m 0 min 0 min 0,0 UV-I 0 W/m 20,6 km/h (4 Bft)
31.12.2013 21:50 5,6 C 4,4 C 76 % 1008,7 hPa 0,0 l/m 0 min 0 min 0,0 UV-I 0 W/m 28,3 km/h (4 Bft)
31.12.2013 21:52 5,6 C 4,4 C 76 % 1008,8 hPa 0,0 l/m 0 min 0 min 0,0 UV-I 0 W/m 28,3 km/h (4 Bft)
31.12.2013 21:54 5,6 C 4,4 C 76 % 1008,9 hPa 0,0 l/m 0 min 0 min 0,0 UV-I 0 W/m 20,6 km/h (4 Bft)
31.12.2013 21:56 5,6 C 4,4 C 76 % 1008,9 hPa 0,0 l/m 0 min 0 min 0,0 UV-I 0 W/m 23,2 km/h (4 Bft)
31.12.2013 21:58 5,6 C 4,4 C 76 % 1009,0 hPa 0,0 l/m 0 min 0 min 0,0 UV-I 0 W/m 10,3 km/h (2 Bft)
31.12.2013 22:00 5,6 C 4,4 C 76 % 1009,0 hPa 0,0 l/m 0 min 0 min 0,0 UV-I 0 W/m 20,6 km/h (4 Bft)
31.12.2013 22:02 5,6 C 4,4 C 76 % 1009,1 hPa 0,0 l/m 0 min 0 min 0,0 UV-I 0 W/m 20,6 km/h (4 Bft)
31.12.2013 22:04 5,6 C 4,4 C 76 % 1009,2 hPa 0,0 l/m 0 min 0 min 0,0 UV-I 0 W/m 20,6 km/h (4 Bft)
31.12.2013 22:06 5,6 C 4,4 C 76 % 1009,3 hPa 0,0 l/m 0 min 0 min 0,0 UV-I 0 W/m 15,4 km/h (3 Bft)
31.12.2013 22:08 5,6 C 4,4 C 76 % 1009,3 hPa 0,0 l/m 0 min 0 min 0,0 UV-I 0 W/m 20,6 km/h (4 Bft)
31.12.2013 22:10 5,6 C 4,4 C 76 % 1009,2 hPa 0,0 l/m 0 min 0 min 0,0 UV-I 0 W/m 23,2 km/h (4 Bft)
31.12.2013 22:12 5,6 C 4,4 C 76 % 1009,2 hPa 0,0 l/m 0 min 0 min 0,0 UV-I 0 W/m 20,6 km/h (4 Bft)
31.12.2013 22:14 5,6 C 4,4 C 76 % 1009,2 hPa 0,0 l/m 0 min 0 min 0,0 UV-I 0 W/m 33,5 km/h (5 Bft)
31.12.2013 22:16 5,6 C 3,9 C 77 % 1009,1 hPa 0,0 l/m 0 min 0 min 0,0 UV-I 0 W/m 23,2 km/h (4 Bft)
31.12.2013 22:18 5,6 C 3,9 C 77 % 1009,1 hPa 0,0 l/m 0 min 0 min 0,0 UV-I 0 W/m 20,6 km/h (4 Bft)
31.12.2013 22:20 5,6 C 3,9 C 77 % 1009,0 hPa 0,0 l/m 0 min 0 min 0,0 UV-I 0 W/m 18,0 km/h (3 Bft)
31.12.2013 22:22 5,6 C 3,9 C 77 % 1009,1 hPa 0,0 l/m 0 min 0 min 0,0 UV-I 0 W/m 18,0 km/h (3 Bft)
31.12.2013 22:24 5,6 C 3,9 C 77 % 1009,1 hPa 0,0 l/m 0 min 0 min 0,0 UV-I 0 W/m 18,0 km/h (3 Bft)
31.12.2013 22:26 5,6 C 3,9 C 77 % 1009,1 hPa 0,0 l/m 0 min 0 min 0,0 UV-I 0 W/m 15,4 km/h (3 Bft)
31.12.2013 22:28 5,6 C 3,9 C 77 % 1009,1 hPa 0,0 l/m 0 min 0 min 0,0 UV-I 0 W/m 23,2 km/h (4 Bft)
31.12.2013 22:30 5,6 C 3,9 C 77 % 1009,0 hPa 0,0 l/m 0 min 2 min 0,0 UV-I 0 W/m 28,3 km/h (4 Bft)
31.12.2013 22:32 5,6 C 3,9 C 77 % 1009,0 hPa 0,0 l/m 0 min 2 min 0,0 UV-I 0 W/m 12,9 km/h (3 Bft)
31.12.2013 22:34 5,6 C 3,9 C 77 % 1008,9 hPa 0,0 l/m 0 min 0 min 0,0 UV-I 0 W/m 0,0 km/h (0 Bft)
31.12.2013 22:36 5,6 C 3,9 C 77 % 1008,8 hPa 0,0 l/m 0 min 2 min 0,0 UV-I 0 W/m 15,4 km/h (3 Bft)
31.12.2013 22:38 5,6 C 3,9 C 77 % 1008,7 hPa 0,0 l/m 0 min 0 min 0,0 UV-I 0 W/m 20,6 km/h (4 Bft)
31.12.2013 22:40 5,6 C 3,9 C 77 % 1008,8 hPa 0,0 l/m 0 min 0 min 0,0 UV-I 0 W/m 18,0 km/h (3 Bft)
31.12.2013 22:42 5,6 C 3,9 C 77 % 1008,8 hPa 0,0 l/m 0 min 0 min 0,0 UV-I 0 W/m 20,6 km/h (4 Bft)
31.12.2013 22:44 5,6 C 3,9 C 77 % 1008,8 hPa 0,0 l/m 0 min 0 min 0,0 UV-I 0 W/m 10,3 km/h (2 Bft)
31.12.2013 22:46 5,6 C 3,9 C 78 % 1009,0 hPa 0,0 l/m 0 min 0 min 0,0 UV-I 0 W/m 12,9 km/h (3 Bft)
31.12.2013 22:48 5,6 C 3,9 C 78 % 1008,9 hPa 0,0 l/m 0 min 0 min 0,0 UV-I 0 W/m 10,3 km/h (2 Bft)
31.12.2013 22:50 5,6 C 3,9 C 77 % 1008,9 hPa 0,0 l/m 0 min 0 min 0,0 UV-I 0 W/m 18,0 km/h (3 Bft)
31.12.2013 22:52 5,6 C 3,9 C 77 % 1008,9 hPa 0,0 l/m 0 min 0 min 0,0 UV-I 0 W/m 12,9 km/h (3 Bft)
31.12.2013 22:54 5,6 C 3,9 C 77 % 1009,0 hPa 0,0 l/m 0 min 0 min 0,0 UV-I 0 W/m 12,9 km/h (3 Bft)
31.12.2013 22:56 5,6 C 4,4 C 77 % 1009,0 hPa 0,0 l/m 0 min 0 min 0,0 UV-I 0 W/m 12,9 km/h (3 Bft)
31.12.2013 22:58 5,6 C 4,4 C 77 % 1008,9 hPa 0,0 l/m 0 min 0 min 0,0 UV-I 0 W/m 18,0 km/h (3 Bft)
31.12.2013 23:00 5,6 C 4,4 C 77 % 1009,0 hPa 0,0 l/m 0 min 0 min 0,0 UV-I 0 W/m 12,9 km/h (3 Bft)
31.12.2013 23:02 5,6 C 4,4 C 77 % 1008,9 hPa 0,0 l/m 0 min 0 min 0,0 UV-I 0 W/m 15,4 km/h (3 Bft)
31.12.2013 23:04 5,6 C 4,4 C 77 % 1008,9 hPa 0,0 l/m 0 min 0 min 0,0 UV-I 0 W/m 10,3 km/h (2 Bft)
31.12.2013 23:06 5,7 C 4,4 C 77 % 1008,9 hPa 0,0 l/m 0 min 0 min 0,0 UV-I 0 W/m 12,9 km/h (3 Bft)
31.12.2013 23:08 5,7 C 4,4 C 76 % 1009,0 hPa 0,0 l/m 0 min 0 min 0,0 UV-I 0 W/m 15,4 km/h (3 Bft)
31.12.2013 23:10 5,7 C 4,4 C 76 % 1008,9 hPa 0,0 l/m 0 min 0 min 0,0 UV-I 0 W/m 18,0 km/h (3 Bft)
31.12.2013 23:12 5,7 C 4,4 C 76 % 1008,9 hPa 0,0 l/m 0 min 0 min 0,0 UV-I 0 W/m 18,0 km/h (3 Bft)
31.12.2013 23:14 5,7 C 4,4 C 76 % 1008,9 hPa 0,0 l/m 0 min 0 min 0,0 UV-I 0 W/m 15,4 km/h (3 Bft)
31.12.2013 23:16 5,8 C 4,4 C 76 % 1008,9 hPa 0,0 l/m 0 min 0 min 0,0 UV-I 0 W/m 12,9 km/h (3 Bft)
31.12.2013 23:18 5,8 C 4,4 C 76 % 1008,8 hPa 0,0 l/m 0 min 0 min 0,0 UV-I 0 W/m 12,9 km/h (3 Bft)
31.12.2013 23:20 5,8 C 4,4 C 76 % 1008,7 hPa 0,0 l/m 0 min 0 min 0,0 UV-I 0 W/m 12,9 km/h (3 Bft)
31.12.2013 23:22 5,8 C 4,4 C 76 % 1008,7 hPa 0,0 l/m 0 min 0 min 0,0 UV-I 0 W/m 18,0 km/h (3 Bft)
31.12.2013 23:24 5,8 C 4,4 C 75 % 1008,7 hPa 0,0 l/m 0 min 0 min 0,0 UV-I 0 W/m 23,2 km/h (4 Bft)
31.12.2013 23:26 5,8 C 4,4 C 75 % 1008,8 hPa 0,0 l/m 0 min 0 min 0,0 UV-I 0 W/m 12,9 km/h (3 Bft)
31.12.2013 23:28 5,8 C 4,4 C 75 % 1008,8 hPa 0,0 l/m 0 min 0 min 0,0 UV-I 0 W/m 12,9 km/h (3 Bft)
31.12.2013 23:30 5,8 C 4,4 C 75 % 1008,8 hPa 0,0 l/m 0 min 0 min 0,0 UV-I 0 W/m 15,4 km/h (3 Bft)
31.12.2013 23:32 5,8 C 4,4 C 75 % 1008,8 hPa 0,0 l/m 0 min 0 min 0,0 UV-I 0 W/m 18,0 km/h (3 Bft)
31.12.2013 23:34 5,9 C 4,4 C 75 % 1008,8 hPa 0,0 l/m 0 min 0 min 0,0 UV-I 0 W/m 15,4 km/h (3 Bft)
31.12.2013 23:36 5,9 C 4,4 C 75 % 1008,9 hPa 0,0 l/m 0 min 0 min 0,0 UV-I 0 W/m 23,2 km/h (4 Bft)
31.12.2013 23:38 5,9 C 4,4 C 75 % 1008,9 hPa 0,0 l/m 0 min 0 min 0,0 UV-I 0 W/m 20,6 km/h (4 Bft)
31.12.2013 23:40 5,9 C 4,4 C 75 % 1008,8 hPa 0,0 l/m 0 min 0 min 0,0 UV-I 0 W/m 10,3 km/h (2 Bft)
31.12.2013 23:42 5,9 C 4,4 C 75 % 1008,9 hPa 0,0 l/m 0 min 0 min 0,0 UV-I 0 W/m 12,9 km/h (3 Bft)
31.12.2013 23:44 5,9 C 4,4 C 75 % 1008,8 hPa 0,0 l/m 0 min 0 min 0,0 UV-I 0 W/m 12,9 km/h (3 Bft)
31.12.2013 23:46 5,9 C 4,4 C 75 % 1008,8 hPa 0,0 l/m 0 min 0 min 0,0 UV-I 0 W/m 10,3 km/h (2 Bft)
31.12.2013 23:48 5,9 C 4,4 C 75 % 1008,7 hPa 0,0 l/m 0 min 0 min 0,0 UV-I 0 W/m 12,9 km/h (3 Bft)
31.12.2013 23:50 5,9 C 4,4 C 75 % 1008,7 hPa 0,0 l/m 0 min 0 min 0,0 UV-I 0 W/m 10,3 km/h (2 Bft)
31.12.2013 23:52 5,9 C 4,4 C 75 % 1008,7 hPa 0,0 l/m 0 min 0 min 0,0 UV-I 0 W/m 15,4 km/h (3 Bft)
31.12.2013 23:54 5,9 C 4,4 C 75 % 1008,7 hPa 0,0 l/m 0 min 0 min 0,0 UV-I 0 W/m 7,7 km/h (2 Bft)
31.12.2013 23:56 6,0 C 4,4 C 75 % 1008,7 hPa 0,0 l/m 0 min 0 min 0,0 UV-I 0 W/m 7,7 km/h (2 Bft)
31.12.2013 23:58 6,0 C 4,4 C 75 % 1008,7 hPa 0,0 l/m 0 min 0 min 0,0 UV-I 0 W/m 15,4 km/h (3 Bft)
_ Min-Zeit 06:42 06:42 17:06 21:46 - - - - - 00:32
Minimum _ 3,2 C 1,1 C 73 % 1008,7 hPa - - - - - 0,0 km/h (0 Bft)
_ Max-Zeit 13:42 13:18 06:44 00:00 05:14 10:24 04:46 00:00 11:40 18:38
Maximum _ 7,5 C 6,1 C 94 % 1019,1 hPa 0,2 l/m 2 min 2 min 0,0 UV-I 239 W/m 43,8 km/h
SO (6 Bft)
Durchschnitt _ 5,5 C 4,0 C 83 % 1013,9 hPa #0,2 l/m #2:56 h #56 min. 0,0 UV-I 102 W/m 16,9 km/h (3 Bft)
© 2013 W. Hausmann